| time (UTC) | temp F | wind direction | speed MPH | gust MPH | rain 1hr in | rain 24hr in | rain mn in | humidity % | barometer mb |
| 20260507004015 | 65 | 121 | 0.0 | 2.0 | 0.00 | 0.12 | 0.12 | 88 | 1008.3 |
| 20260507003927 | 65 | 143 | 1.0 | 1.0 | 0.00 | 0.12 | 0.12 | 88 | 1008.1 |
| 20260507003842 | 65 | 156 | 1.0 | 2.0 | 0.00 | 0.12 | 0.12 | 88 | 1008.2 |
| 20260507003718 | 65 | 129 | 0.0 | 1.0 | 0.00 | 0.12 | 0.12 | 88 | 1008.2 |
| 20260507003630 | 65 | 110 | 0.0 | 1.0 | 0.00 | 0.12 | 0.12 | 88 | 1008.1 |
| 20260507003545 | 65 | 122 | 1.0 | 2.0 | 0.00 | 0.12 | 0.12 | 88 | 1008.1 |
| 20260507003421 | 65 | 127 | 1.0 | 1.0 | 0.00 | 0.12 | 0.12 | 88 | 1008.2 |
| 20260507003316 | 65 | 0.0 | 1.0 | 0.00 | 0.12 | 0.12 | 88 | 1008.2 | |
| 20260507003228 | 65 | 0.0 | 1.0 | 0.00 | 0.12 | 0.12 | 88 | 1008.2 | |
| 20260507003123 | 65 | 0.0 | 1.0 | 0.00 | 0.12 | 0.12 | 88 | 1008.2 | |
| 20260507003019 | 65 | 0.0 | 1.0 | 0.00 | 0.12 | 0.12 | 88 | 1008.2 | |
| 20260507002931 | 65 | 0.0 | 1.0 | 0.00 | 0.12 | 0.12 | 88 | 1008.1 | |
| 20260507002826 | 65 | 0.0 | 1.0 | 0.00 | 0.12 | 0.12 | 87 | 1008.2 | |
| 20260507002722 | 65 | 165 | 1.0 | 1.0 | 0.00 | 0.12 | 0.12 | 87 | 1008.2 |
| 20260507002618 | 65 | 145 | 0.0 | 1.0 | 0.00 | 0.12 | 0.12 | 87 | 1008.1 |
| 20260507002529 | 65 | 144 | 0.0 | 1.0 | 0.00 | 0.12 | 0.12 | 87 | 1008.2 |
| 20260507002425 | 65 | 0.0 | 1.0 | 0.00 | 0.12 | 0.12 | 87 | 1008.2 | |
| 20260507002320 | 65 | 0.0 | 1.0 | 0.00 | 0.12 | 0.12 | 87 | 1008.1 | |
| 20260507002216 | 65 | 123 | 1.0 | 2.0 | 0.00 | 0.12 | 0.12 | 87 | 1008.3 |
| 20260507002128 | 65 | 120 | 0.0 | 1.0 | 0.00 | 0.12 | 0.12 | 87 | 1008.2 |
| 20260507002024 | 65 | 159 | 0.0 | 1.0 | 0.00 | 0.12 | 0.12 | 87 | 1008.2 |
| 20260507001919 | 65 | 0.0 | 0.0 | 0.00 | 0.12 | 0.12 | 87 | 1008.0 | |
| 20260507001815 | 65 | 135 | 0.0 | 1.0 | 0.00 | 0.12 | 0.12 | 87 | 1008.2 |
| 20260507001727 | 65 | 102 | 1.0 | 1.0 | 0.00 | 0.12 | 0.12 | 87 | 1008.2 |
| 20260507001622 | 65 | 0.0 | 1.0 | 0.00 | 0.12 | 0.12 | 87 | 1008.2 | |
| 20260507001518 | 66 | 126 | 0.0 | 1.0 | 0.00 | 0.12 | 0.12 | 87 | 1008.0 |
| 20260507001430 | 66 | 122 | 0.0 | 2.0 | 0.00 | 0.12 | 0.12 | 86 | 1008.1 |
| 20260507001325 | 66 | 156 | 1.0 | 2.0 | 0.00 | 0.12 | 0.12 | 86 | 1008.1 |
| 20260507001221 | 66 | 128 | 1.0 | 2.0 | 0.00 | 0.12 | 0.12 | 86 | 1008.2 |
| 20260507001137 | 66 | 143 | 0.0 | 2.0 | 0.00 | 0.12 | 0.12 | 86 | 1008.2 |
| 20260507001028 | 66 | 0.0 | 0.0 | 0.00 | 0.12 | 0.12 | 86 | 1008.1 | |
| 20260507000924 | 66 | 162 | 0.0 | 1.0 | 0.00 | 0.12 | 0.12 | 86 | 1008.0 |
| 20260507000859 | 66 | 0.0 | 1.0 | 0.00 | 0.12 | 0.12 | 86 | 1008.2 | |
| 20260507000735 | 66 | 0.0 | 0.0 | 0.00 | 0.12 | 0.12 | 86 | 1008.1 | |
| 20260507000647 | 66 | 0.0 | 0.0 | 0.00 | 0.12 | 0.12 | 86 | 1008.3 | |
| 20260507000522 | 66 | 0.0 | 0.0 | 0.00 | 0.12 | 0.12 | 86 | 1008.4 | |
| 20260507000420 | 66 | 0.0 | 1.0 | 0.00 | 0.12 | 0.12 | 86 | 1008.3 | |
| 20260507000330 | 66 | 188 | 1.0 | 2.0 | 0.00 | 0.12 | 0.12 | 86 | 1008.3 |
| 20260507000226 | 66 | 179 | 1.0 | 2.0 | 0.00 | 0.12 | 0.12 | 86 | 1008.1 |
| 20260507000121 | 66 | 0.0 | 0.0 | 0.00 | 0.12 | 0.12 | 86 | 1008.1 | |
| 20260507000037 | 66 | 112 | 0.0 | 2.0 | 0.00 | 0.12 | 0.12 | 86 | 1008.1 |
| 20260506235928 | 66 | 186 | 1.0 | 2.0 | 0.00 | 0.12 | 0.12 | 85 | 1008.2 |
| 20260506235824 | 66 | 179 | 1.0 | 2.0 | 0.00 | 0.12 | 0.12 | 86 | 1008.2 |
| 20260506235720 | 66 | 0.0 | 1.0 | 0.00 | 0.12 | 0.12 | 86 | 1008.1 | |
| 20260506235615 | 66 | 161 | 1.0 | 1.0 | 0.00 | 0.12 | 0.12 | 86 | 1008.2 |
| 20260506235527 | 66 | 0.0 | 1.0 | 0.00 | 0.12 | 0.12 | 86 | 1008.1 | |
| 20260506235423 | 66 | 136 | 0.0 | 1.0 | 0.00 | 0.12 | 0.12 | 85 | 1008.2 |
| 20260506235318 | 66 | 0.0 | 1.0 | 0.00 | 0.12 | 0.12 | 85 | 1008.1 | |
| 20260506235250 | 66 | 189 | 1.0 | 1.0 | 0.00 | 0.12 | 0.12 | 85 | 1008.1 |
| 20260506235125 | 66 | 199 | 0.0 | 3.0 | 0.00 | 0.12 | 0.12 | 85 | 1008.1 |
| 20260506235021 | 66 | 195 | 1.0 | 3.0 | 0.00 | 0.12 | 0.12 | 85 | 1008.2 |
| 20260506234917 | 66 | 156 | 1.0 | 2.0 | 0.00 | 0.12 | 0.12 | 85 | 1008.3 |
| 20260506234828 | 66 | 188 | 1.0 | 2.0 | 0.00 | 0.12 | 0.12 | 85 | 1008.0 |
| 20260506234724 | 66 | 188 | 1.0 | 2.0 | 0.00 | 0.12 | 0.12 | 85 | 1008.1 |
| 20260506234619 | 66 | 196 | 1.0 | 2.0 | 0.00 | 0.12 | 0.12 | 85 | 1008.1 |
| 20260506234515 | 66 | 200 | 1.0 | 2.0 | 0.00 | 0.12 | 0.12 | 85 | 1007.9 |
| 20260506234427 | 66 | 194 | 1.0 | 2.0 | 0.00 | 0.12 | 0.12 | 85 | 1008.0 |
| 20260506234323 | 66 | 196 | 1.0 | 2.0 | 0.00 | 0.12 | 0.12 | 85 | 1007.9 |
| 20260506234238 | 66 | 0.0 | 1.0 | 0.00 | 0.12 | 0.12 | 85 | 1007.9 | |
| 20260506234130 | 66 | 153 | 1.0 | 2.0 | 0.00 | 0.12 | 0.12 | 84 | 1007.8 |
| 20260506234026 | 66 | 196 | 1.0 | 2.0 | 0.00 | 0.12 | 0.12 | 84 | 1007.7 |
| 20260506233921 | 66 | 181 | 3.0 | 4.0 | 0.00 | 0.12 | 0.12 | 84 | 1007.8 |
| 20260506233817 | 66 | 182 | 2.0 | 3.0 | 0.00 | 0.12 | 0.12 | 84 | 1008.0 |
| 20260506233728 | 66 | 168 | 2.0 | 3.0 | 0.00 | 0.12 | 0.12 | 84 | 1008.0 |
| 20260506233624 | 66 | 162 | 0.0 | 2.0 | 0.00 | 0.12 | 0.12 | 84 | 1008.1 |
| 20260506233540 | 66 | 197 | 0.0 | 4.0 | 0.00 | 0.12 | 0.12 | 84 | 1007.9 |
| 20260506233415 | 66 | 185 | 3.0 | 5.0 | 0.00 | 0.12 | 0.12 | 84 | 1007.9 |
| 20260506233327 | 66 | 174 | 1.0 | 2.0 | 0.00 | 0.12 | 0.12 | 84 | 1008.3 |
| 20260506233223 | 66 | 226 | 2.0 | 3.0 | 0.00 | 0.12 | 0.12 | 84 | 1008.1 |
| 20260506233118 | 66 | 177 | 2.0 | 3.0 | 0.00 | 0.12 | 0.12 | 84 | 1008.2 |
| 20260506233030 | 66 | 204 | 1.0 | 2.0 | 0.00 | 0.12 | 0.12 | 84 | 1008.0 |
| 20260506232926 | 66 | 206 | 2.0 | 2.0 | 0.00 | 0.12 | 0.12 | 84 | 1008.0 |
| 20260506232821 | 66 | 188 | 0.0 | 2.0 | 0.00 | 0.12 | 0.12 | 84 | 1008.1 |
| 20260506232717 | 66 | 207 | 1.0 | 2.0 | 0.00 | 0.12 | 0.12 | 84 | 1008.0 |
| 20260506232629 | 66 | 194 | 1.0 | 3.0 | 0.00 | 0.12 | 0.12 | 84 | 1007.9 |
| 20260506232544 | 66 | 181 | 1.0 | 3.0 | 0.00 | 0.12 | 0.12 | 84 | 1007.8 |
| 20260506232420 | 66 | 183 | 0.0 | 2.0 | 0.00 | 0.12 | 0.12 | 84 | 1007.8 |
| 20260506232315 | 66 | 195 | 1.0 | 2.0 | 0.00 | 0.12 | 0.12 | 84 | 1008.1 |
| 20260506232227 | 66 | 191 | 2.0 | 3.0 | 0.00 | 0.12 | 0.12 | 84 | 1007.9 |
| 20260506232123 | 66 | 195 | 1.0 | 3.0 | 0.00 | 0.12 | 0.12 | 84 | 1008.0 |
| 20260506232018 | 66 | 195 | 2.0 | 2.0 | 0.00 | 0.12 | 0.12 | 84 | 1008.0 |
| 20260506231930 | 66 | 185 | 1.0 | 2.0 | 0.00 | 0.12 | 0.12 | 84 | 1007.8 |
| 20260506231846 | 66 | 207 | 1.0 | 2.0 | 0.00 | 0.12 | 0.12 | 84 | 1008.1 |
| 20260506231721 | 66 | 190 | 1.0 | 2.0 | 0.00 | 0.12 | 0.12 | 83 | 1007.8 |
| 20260506231617 | 66 | 0.0 | 2.0 | 0.00 | 0.12 | 0.12 | 84 | 1007.9 | |
| 20260506231529 | 66 | 217 | 0.0 | 2.0 | 0.00 | 0.12 | 0.12 | 83 | 1008.0 |
| 20260506231444 | 66 | 211 | 4.0 | 5.0 | 0.00 | 0.12 | 0.12 | 83 | 1007.8 |
| 20260506231320 | 66 | 210 | 1.0 | 4.0 | 0.00 | 0.12 | 0.12 | 83 | 1008.0 |
| 20260506231235 | 66 | 210 | 1.0 | 3.0 | 0.00 | 0.12 | 0.12 | 83 | 1007.9 |
| 20260506231147 | 66 | 225 | 2.0 | 3.0 | 0.00 | 0.12 | 0.12 | 83 | 1008.0 |
| 20260506231023 | 66 | 225 | 1.0 | 3.0 | 0.00 | 0.12 | 0.12 | 84 | 1007.8 |
| 20260506230918 | 66 | 216 | 1.0 | 3.0 | 0.00 | 0.12 | 0.12 | 84 | 1008.0 |
| 20260506230830 | 66 | 198 | 1.0 | 2.0 | 0.00 | 0.12 | 0.12 | 84 | 1008.0 |
| 20260506230745 | 66 | 156 | 1.0 | 2.0 | 0.00 | 0.12 | 0.12 | 83 | 1007.8 |
| 20260506230621 | 66 | 183 | 2.0 | 4.0 | 0.00 | 0.12 | 0.12 | 83 | 1007.9 |
| 20260506230517 | 66 | 183 | 2.0 | 4.0 | 0.00 | 0.12 | 0.12 | 84 | 1008.0 |
| 20260506230428 | 66 | 176 | 2.0 | 4.0 | 0.00 | 0.12 | 0.12 | 84 | 1007.9 |
| 20260506230324 | 66 | 186 | 2.0 | 3.0 | 0.00 | 0.12 | 0.12 | 84 | 1007.9 |
| 20260506230219 | 66 | 188 | 2.0 | 4.0 | 0.00 | 0.12 | 0.12 | 84 | 1007.8 |
| 20260506230115 | 66 | 187 | 3.0 | 6.0 | 0.00 | 0.12 | 0.12 | 83 | 1007.8 |
| 20260506230027 | 66 | 196 | 3.0 | 4.0 | 0.00 | 0.12 | 0.12 | 84 | 1007.9 |
| 20260506225922 | 66 | 192 | 5.0 | 7.0 | 0.00 | 0.12 | 0.12 | 84 | 1008.0 |
| 20260506225838 | 66 | 185 | 1.0 | 2.0 | 0.00 | 0.12 | 0.12 | 84 | 1007.7 |
| 20260506225730 | 66 | 240 | 2.0 | 3.0 | 0.00 | 0.12 | 0.12 | 84 | 1008.0 |
| 20260506225626 | 66 | 226 | 2.0 | 3.0 | 0.00 | 0.12 | 0.12 | 84 | 1008.0 |
| 20260506225521 | 66 | 214 | 3.0 | 3.0 | 0.00 | 0.12 | 0.12 | 84 | 1007.9 |
| 20260506225416 | 66 | 189 | 2.0 | 3.0 | 0.00 | 0.12 | 0.12 | 84 | 1008.1 |
| 20260506225328 | 66 | 176 | 1.0 | 2.0 | 0.00 | 0.12 | 0.12 | 84 | 1007.7 |
| 20260506225224 | 66 | 104 | 1.0 | 3.0 | 0.00 | 0.12 | 0.12 | 84 | 1007.8 |
| 20260506225119 | 66 | 210 | 1.0 | 2.0 | 0.00 | 0.12 | 0.12 | 84 | 1008.0 |
| 20260506225015 | 66 | 0.0 | 2.0 | 0.00 | 0.12 | 0.12 | 84 | 1007.9 | |
| 20260506224927 | 66 | 227 | 2.0 | 4.0 | 0.00 | 0.12 | 0.12 | 84 | 1007.8 |
| 20260506224822 | 66 | 192 | 4.0 | 5.0 | 0.00 | 0.12 | 0.12 | 84 | 1007.8 |
| 20260506224718 | 66 | 195 | 3.0 | 3.0 | 0.00 | 0.12 | 0.12 | 84 | 1007.9 |
| 20260506224629 | 66 | 182 | 1.0 | 4.0 | 0.00 | 0.12 | 0.12 | 84 | 1007.8 |
| 20260506224545 | 66 | 202 | 2.0 | 4.0 | 0.00 | 0.12 | 0.12 | 84 | 1007.8 |
| 20260506224421 | 66 | 193 | 3.0 | 3.0 | 0.00 | 0.12 | 0.12 | 84 | 1008.0 |
| 20260506224316 | 66 | 203 | 2.0 | 2.0 | 0.00 | 0.12 | 0.12 | 84 | 1007.9 |
| 20260506224228 | 66 | 221 | 2.0 | 4.0 | 0.00 | 0.12 | 0.12 | 84 | 1007.9 |
| 20260506224124 | 66 | 196 | 3.0 | 5.0 | 0.00 | 0.12 | 0.12 | 84 | 1007.7 |
| 20260506224019 | 66 | 210 | 1.0 | 2.0 | 0.00 | 0.12 | 0.12 | 84 | 1007.8 |
| 20260506223915 | 66 | 212 | 3.0 | 6.0 | 0.00 | 0.12 | 0.12 | 84 | 1007.7 |
| 20260506223827 | 66 | 195 | 3.0 | 6.0 | 0.00 | 0.12 | 0.12 | 84 | 1007.7 |
| 20260506223722 | 66 | 186 | 2.0 | 4.0 | 0.00 | 0.12 | 0.12 | 84 | 1007.7 |
| 20260506223618 | 66 | 194 | 2.0 | 2.0 | 0.00 | 0.12 | 0.12 | 84 | 1007.9 |
| 20260506223550 | 66 | 195 | 3.0 | 6.0 | 0.00 | 0.12 | 0.12 | 84 | 1007.5 |
| 20260506223425 | 66 | 198 | 4.0 | 7.0 | 0.00 | 0.12 | 0.12 | 84 | 1007.7 |
| 20260506223341 | 66 | 189 | 5.0 | 8.0 | 0.00 | 0.12 | 0.12 | 84 | 1007.5 |
| 20260506223217 | 66 | 209 | 3.0 | 4.0 | 0.00 | 0.12 | 0.12 | 84 | 1007.7 |
| 20260506223128 | 66 | 239 | 3.0 | 4.0 | 0.00 | 0.12 | 0.12 | 84 | 1007.7 |
| 20260506223044 | 66 | 211 | 1.0 | 4.0 | 0.00 | 0.12 | 0.12 | 84 | 1007.6 |
| 20260506222919 | 66 | 238 | 3.0 | 7.0 | 0.00 | 0.12 | 0.12 | 84 | 1007.9 |
| 20260506222815 | 66 | 195 | 7.0 | 8.0 | 0.00 | 0.12 | 0.12 | 84 | 1007.8 |
| 20260506222727 | 66 | 185 | 4.0 | 7.0 | 0.00 | 0.12 | 0.12 | 84 | 1007.8 |
| 20260506222622 | 66 | 222 | 2.0 | 4.0 | 0.00 | 0.12 | 0.12 | 84 | 1007.8 |
| 20260506222518 | 66 | 201 | 3.0 | 4.0 | 0.00 | 0.12 | 0.12 | 84 | 1007.7 |
| 20260506222430 | 66 | 203 | 2.0 | 3.0 | 0.00 | 0.12 | 0.12 | 84 | 1007.8 |
| 20260506222325 | 66 | 298 | 2.0 | 3.0 | 0.00 | 0.12 | 0.12 | 84 | 1007.7 |
| 20260506222221 | 66 | 193 | 3.0 | 6.0 | 0.00 | 0.12 | 0.12 | 84 | 1007.8 |
| 20260506222136 | 66 | 203 | 5.0 | 6.0 | 0.00 | 0.12 | 0.12 | 84 | 1007.7 |
| 20260506222048 | 66 | 190 | 2.0 | 3.0 | 0.00 | 0.12 | 0.12 | 84 | 1007.9 |
| 20260506221944 | 66 | 199 | 3.0 | 6.0 | 0.00 | 0.12 | 0.12 | 84 | 1007.7 |
| 20260506221819 | 66 | 202 | 4.0 | 6.0 | 0.00 | 0.12 | 0.12 | 84 | 1007.6 |
| 20260506221715 | 66 | 228 | 2.0 | 5.0 | 0.00 | 0.12 | 0.12 | 84 | 1007.8 |
| 20260506221627 | 66 | 187 | 2.0 | 5.0 | 0.00 | 0.12 | 0.12 | 84 | 1007.7 |
| 20260506221542 | 66 | 213 | 3.0 | 4.0 | 0.00 | 0.12 | 0.12 | 84 | 1007.7 |
| 20260506221418 | 66 | 238 | 2.0 | 2.0 | 0.00 | 0.12 | 0.12 | 84 | 1007.8 |
| 20260506221329 | 66 | 257 | 2.0 | 4.0 | 0.00 | 0.12 | 0.12 | 84 | 1007.7 |
| 20260506221225 | 66 | 262 | 1.0 | 3.0 | 0.00 | 0.12 | 0.12 | 84 | 1007.8 |
| 20260506221121 | 66 | 204 | 2.0 | 3.0 | 0.00 | 0.12 | 0.12 | 84 | 1007.8 |
| 20260506221036 | 66 | 203 | 2.0 | 4.0 | 0.00 | 0.12 | 0.12 | 84 | 1007.7 |
| 20260506220928 | 66 | 196 | 3.0 | 5.0 | 0.00 | 0.12 | 0.12 | 84 | 1007.8 |
| 20260506220823 | 66 | 201 | 3.0 | 4.0 | 0.00 | 0.12 | 0.12 | 84 | 1007.8 |
| 20260506220739 | 66 | 226 | 3.0 | 5.0 | 0.00 | 0.12 | 0.12 | 83 | 1007.6 |
| 20260506220631 | 66 | 181 | 3.0 | 4.0 | 0.00 | 0.12 | 0.12 | 84 | 1007.5 |
| 20260506220526 | 66 | 215 | 3.0 | 6.0 | 0.00 | 0.12 | 0.12 | 84 | 1007.6 |
| 20260506220422 | 66 | 197 | 4.0 | 6.0 | 0.00 | 0.12 | 0.12 | 84 | 1007.5 |
| 20260506220318 | 66 | 187 | 6.0 | 7.0 | 0.00 | 0.12 | 0.12 | 84 | 1007.7 |
| 20260506220229 | 66 | 184 | 4.0 | 6.0 | 0.00 | 0.12 | 0.12 | 84 | 1007.5 |
| 20260506220125 | 66 | 198 | 3.0 | 4.0 | 0.00 | 0.12 | 0.12 | 84 | 1007.6 |
| 20260506220021 | 66 | 202 | 4.0 | 4.0 | 0.00 | 0.12 | 0.12 | 84 | 1007.7 |
| 20260506215917 | 66 | 202 | 2.0 | 3.0 | 0.00 | 0.12 | 0.12 | 84 | 1007.6 |
| 20260506215828 | 66 | 200 | 2.0 | 4.0 | 0.00 | 0.12 | 0.12 | 84 | 1007.8 |
| 20260506215724 | 66 | 224 | 4.0 | 6.0 | 0.00 | 0.12 | 0.12 | 84 | 1007.7 |
| 20260506215620 | 66 | 248 | 2.0 | 5.0 | 0.00 | 0.12 | 0.12 | 84 | 1007.6 |
| 20260506215535 | 66 | 201 | 1.0 | 3.0 | 0.00 | 0.12 | 0.12 | 85 | 1007.7 |
| 20260506215427 | 66 | 213 | 2.0 | 5.0 | 0.00 | 0.12 | 0.12 | 85 | 1007.6 |
| 20260506215322 | 66 | 196 | 3.0 | 4.0 | 0.00 | 0.12 | 0.12 | 85 | 1007.5 |
| 20260506215218 | 66 | 188 | 1.0 | 2.0 | 0.00 | 0.12 | 0.12 | 85 | 1007.6 |
| 20260506215130 | 66 | 203 | 2.0 | 3.0 | 0.00 | 0.12 | 0.12 | 85 | 1007.6 |
| 20260506215025 | 66 | 194 | 2.0 | 3.0 | 0.00 | 0.12 | 0.12 | 85 | 1007.6 |
| 20260506214921 | 66 | 199 | 4.0 | 6.0 | 0.00 | 0.12 | 0.12 | 85 | 1007.5 |
| 20260506214916 | 66 | 192 | 3.0 | 4.0 | 0.00 | 0.12 | 0.12 | 85 | 1007.7 |
| 20260506214728 | 66 | 232 | 2.0 | 5.0 | 0.00 | 0.12 | 0.12 | 85 | 1007.7 |
| 20260506214624 | 66 | 216 | 3.0 | 6.0 | 0.00 | 0.12 | 0.12 | 85 | 1007.6 |
| 20260506214539 | 66 | 225 | 1.0 | 3.0 | 0.00 | 0.12 | 0.12 | 85 | 1007.8 |
| 20260506214415 | 66 | 215 | 2.0 | 4.0 | 0.00 | 0.12 | 0.12 | 85 | 1007.6 |
| 20260506214327 | 66 | 218 | 1.0 | 3.0 | 0.00 | 0.12 | 0.12 | 85 | 1007.6 |
| 20260506214222 | 66 | 203 | 2.0 | 4.0 | 0.00 | 0.12 | 0.12 | 85 | 1007.6 |
| 20260506214118 | 66 | 191 | 4.0 | 6.0 | 0.00 | 0.12 | 0.12 | 85 | 1007.7 |
| 20260506214030 | 65 | 198 | 3.0 | 4.0 | 0.00 | 0.12 | 0.12 | 85 | 1007.7 |
| 20260506213925 | 66 | 191 | 2.0 | 4.0 | 0.00 | 0.12 | 0.12 | 85 | 1007.7 |
| 20260506213821 | 66 | 203 | 2.0 | 3.0 | 0.00 | 0.12 | 0.12 | 85 | 1007.8 |
| 20260506213737 | 66 | 191 | 1.0 | 4.0 | 0.00 | 0.12 | 0.12 | 85 | 1007.8 |
| 20260506213628 | 66 | 193 | 4.0 | 6.0 | 0.00 | 0.12 | 0.12 | 85 | 1007.6 |
| 20260506213544 | 66 | 201 | 2.0 | 3.0 | 0.00 | 0.12 | 0.12 | 85 | 1007.8 |
| 20260506213439 | 66 | 218 | 1.0 | 3.0 | 0.00 | 0.12 | 0.12 | 85 | 1007.5 |
| 20260506213351 | 66 | 193 | 2.0 | 3.0 | 0.00 | 0.12 | 0.12 | 85 | 1007.7 |
| 20260506213226 | 65 | 208 | 1.0 | 4.0 | 0.00 | 0.12 | 0.12 | 85 | 1007.5 |
| 20260506213122 | 65 | 214 | 3.0 | 6.0 | 0.00 | 0.12 | 0.12 | 85 | 1007.6 |
| 20260506213018 | 65 | 192 | 4.0 | 5.0 | 0.00 | 0.12 | 0.12 | 85 | 1007.6 |
| 20260506212929 | 65 | 192 | 3.0 | 7.0 | 0.00 | 0.12 | 0.12 | 85 | 1007.4 |
| 20260506212825 | 65 | 205 | 1.0 | 4.0 | 0.00 | 0.12 | 0.12 | 85 | 1007.4 |
| 20260506212721 | 65 | 154 | 1.0 | 4.0 | 0.00 | 0.12 | 0.12 | 85 | 1007.2 |
| 20260506212616 | 65 | 243 | 3.0 | 6.0 | 0.00 | 0.12 | 0.12 | 85 | 1007.4 |
| 20260506212528 | 65 | 193 | 4.0 | 7.0 | 0.00 | 0.12 | 0.12 | 85 | 1007.5 |
| 20260506212424 | 65 | 218 | 2.0 | 5.0 | 0.00 | 0.12 | 0.12 | 85 | 1007.4 |
| 20260506212319 | 65 | 204 | 3.0 | 5.0 | 0.00 | 0.12 | 0.12 | 85 | 1007.4 |
| 20260506212231 | 65 | 211 | 3.0 | 4.0 | 0.00 | 0.12 | 0.12 | 85 | 1007.4 |
| 20260506212127 | 65 | 201 | 3.0 | 4.0 | 0.00 | 0.12 | 0.12 | 85 | 1007.3 |
| 20260506212022 | 65 | 190 | 3.0 | 6.0 | 0.00 | 0.12 | 0.12 | 85 | 1007.4 |
| 20260506211918 | 65 | 202 | 3.0 | 6.0 | 0.00 | 0.12 | 0.12 | 85 | 1007.5 |
| 20260506211829 | 65 | 192 | 3.0 | 5.0 | 0.00 | 0.12 | 0.12 | 86 | 1007.4 |
| 20260506211725 | 65 | 217 | 2.0 | 4.0 | 0.00 | 0.12 | 0.12 | 86 | 1007.4 |
| 20260506211620 | 65 | 222 | 2.0 | 4.0 | 0.00 | 0.12 | 0.12 | 85 | 1007.3 |
| 20260506211516 | 65 | 211 | 4.0 | 6.0 | 0.00 | 0.12 | 0.12 | 85 | 1007.4 |
| 20260506211428 | 65 | 203 | 4.0 | 6.0 | 0.00 | 0.12 | 0.12 | 86 | 1007.4 |
| 20260506211403 | 66 | 179 | 1.0 | 3.0 | 0.00 | 0.12 | 0.12 | 86 | 1007.5 |
| 20260506211219 | 65 | 208 | 3.0 | 4.0 | 0.00 | 0.12 | 0.12 | 86 | 1007.4 |
| 20260506211130 | 65 | 195 | 3.0 | 5.0 | 0.00 | 0.12 | 0.12 | 85 | 1007.3 |
| 20260506211026 | 65 | 198 | 3.0 | 5.0 | 0.00 | 0.12 | 0.12 | 85 | 1007.3 |
| 20260506210922 | 66 | 201 | 2.0 | 4.0 | 0.00 | 0.12 | 0.12 | 85 | 1007.4 |
| 20260506210817 | 66 | 200 | 3.0 | 4.0 | 0.00 | 0.12 | 0.12 | 85 | 1007.4 |
| 20260506210729 | 65 | 220 | 3.0 | 5.0 | 0.00 | 0.12 | 0.12 | 85 | 1007.3 |
| 20260506210625 | 66 | 223 | 3.0 | 5.0 | 0.00 | 0.12 | 0.12 | 85 | 1007.3 |
| 20260506210520 | 66 | 201 | 5.0 | 7.0 | 0.00 | 0.12 | 0.12 | 85 | 1007.1 |
| 20260506210416 | 66 | 196 | 5.0 | 7.0 | 0.00 | 0.12 | 0.12 | 85 | 1007.2 |
| 20260506210328 | 66 | 187 | 5.0 | 9.0 | 0.00 | 0.12 | 0.12 | 85 | 1007.2 |
| 20260506210223 | 66 | 198 | 6.0 | 10.0 | 0.00 | 0.12 | 0.12 | 85 | 1007.1 |
| 20260506210119 | 66 | 166 | 2.0 | 3.0 | 0.00 | 0.12 | 0.12 | 85 | 1007.3 |
| 20260506210030 | 66 | 241 | 1.0 | 2.0 | 0.00 | 0.12 | 0.12 | 85 | 1007.4 |
| 20260506205946 | 66 | 203 | 2.0 | 4.0 | 0.00 | 0.12 | 0.12 | 85 | 1007.2 |
| 20260506205822 | 66 | 178 | 2.0 | 4.0 | 0.00 | 0.12 | 0.12 | 85 | 1007.3 |
| 20260506205717 | 66 | 197 | 3.0 | 4.0 | 0.00 | 0.12 | 0.12 | 85 | 1007.2 |
| 20260506205629 | 66 | 202 | 2.0 | 4.0 | 0.00 | 0.12 | 0.12 | 85 | 1007.4 |
| 20260506205525 | 66 | 205 | 2.0 | 7.0 | 0.00 | 0.12 | 0.12 | 85 | 1007.2 |
| 20260506205420 | 66 | 192 | 5.0 | 8.0 | 0.00 | 0.12 | 0.12 | 85 | 1007.1 |
| 20260506205316 | 66 | 199 | 4.0 | 5.0 | 0.00 | 0.12 | 0.12 | 86 | 1007.2 |
| 20260506205227 | 66 | 234 | 2.0 | 5.0 | 0.00 | 0.12 | 0.12 | 86 | 1007.2 |
| 20260506205123 | 65 | 194 | 5.0 | 6.0 | 0.00 | 0.12 | 0.12 | 86 | 1007.1 |
| 20260506205019 | 65 | 201 | 4.0 | 7.0 | 0.00 | 0.12 | 0.12 | 86 | 1007.0 |
| 20260506204930 | 65 | 210 | 5.0 | 8.0 | 0.00 | 0.12 | 0.12 | 86 | 1007.0 |
| 20260506204826 | 65 | 195 | 6.0 | 10.0 | 0.00 | 0.12 | 0.12 | 86 | 1007.2 |
| 20260506204721 | 66 | 203 | 6.0 | 11.0 | 0.00 | 0.12 | 0.12 | 86 | 1007.1 |
| 20260506204617 | 65 | 210 | 3.0 | 6.0 | 0.00 | 0.12 | 0.12 | 86 | 1007.1 |
| 20260506204529 | 65 | 205 | 3.0 | 5.0 | 0.00 | 0.12 | 0.12 | 87 | 1007.1 |
| 20260506204424 | 65 | 198 | 5.0 | 7.0 | 0.00 | 0.12 | 0.12 | 86 | 1007.0 |
| 20260506204320 | 65 | 225 | 3.0 | 4.0 | 0.00 | 0.12 | 0.12 | 87 | 1007.0 |
| 20260506204216 | 65 | 257 | 2.0 | 4.0 | 0.00 | 0.12 | 0.12 | 87 | 1007.0 |
| 20260506204127 | 65 | 272 | 2.0 | 4.0 | 0.00 | 0.12 | 0.12 | 87 | 1007.2 |
| 20260506204023 | 65 | 197 | 2.0 | 4.0 | 0.00 | 0.12 | 0.12 | 87 | 1006.8 |
| 20260506203958 | 65 | 206 | 3.0 | 6.0 | 0.00 | 0.12 | 0.12 | 87 | 1007.3 |
| 20260506203850 | 65 | 196 | 2.0 | 5.0 | 0.00 | 0.12 | 0.12 | 87 | 1007.2 |
| 20260506203726 | 65 | 204 | 2.0 | 5.0 | 0.00 | 0.12 | 0.12 | 87 | 1007.1 |
| 20260506203622 | 65 | 196 | 3.0 | 6.0 | 0.00 | 0.12 | 0.12 | 87 | 1007.2 |
| 20260506203517 | 65 | 201 | 3.0 | 4.0 | 0.00 | 0.12 | 0.12 | 87 | 1007.2 |
| 20260506203449 | 65 | 199 | 3.0 | 7.0 | 0.00 | 0.12 | 0.12 | 87 | 1007.1 |
| 20260506203324 | 65 | 198 | 4.0 | 6.0 | 0.00 | 0.12 | 0.12 | 87 | 1007.2 |
| 20260506203220 | 65 | 193 | 5.0 | 8.0 | 0.00 | 0.12 | 0.12 | 87 | 1007.1 |
| 20260506203116 | 65 | 195 | 7.0 | 9.0 | 0.00 | 0.12 | 0.12 | 87 | 1007.1 |
| 20260506203027 | 65 | 202 | 5.0 | 8.0 | 0.00 | 0.12 | 0.12 | 87 | 1007.1 |
| 20260506202923 | 65 | 188 | 5.0 | 7.0 | 0.00 | 0.12 | 0.12 | 87 | 1007.2 |
| 20260506202819 | 65 | 221 | 2.0 | 8.0 | 0.00 | 0.12 | 0.12 | 87 | 1007.1 |
| 20260506202730 | 65 | 203 | 6.0 | 8.0 | 0.00 | 0.12 | 0.12 | 87 | 1007.2 |
| 20260506202626 | 65 | 208 | 5.0 | 7.0 | 0.00 | 0.12 | 0.12 | 88 | 1007.1 |
| 20260506202522 | 65 | 233 | 5.0 | 6.0 | 0.00 | 0.12 | 0.12 | 88 | 1007.0 |
| 20260506202417 | 65 | 218 | 4.0 | 6.0 | 0.00 | 0.12 | 0.12 | 88 | 1007.1 |
| 20260506202329 | 65 | 205 | 1.0 | 4.0 | 0.00 | 0.12 | 0.12 | 88 | 1007.1 |
| 20260506202225 | 64 | 204 | 3.0 | 4.0 | 0.00 | 0.12 | 0.12 | 88 | 1007.2 |
| 20260506202120 | 64 | 211 | 3.0 | 4.0 | 0.00 | 0.12 | 0.12 | 88 | 1007.1 |
| 20260506202016 | 64 | 203 | 4.0 | 6.0 | 0.00 | 0.12 | 0.12 | 88 | 1007.3 |
| 20260506201927 | 64 | 194 | 3.0 | 5.0 | 0.00 | 0.12 | 0.12 | 88 | 1007.4 |
| 20260506201823 | 64 | 248 | 5.0 | 9.0 | 0.00 | 0.12 | 0.12 | 88 | 1007.2 |
| 20260506201718 | 64 | 194 | 5.0 | 11.0 | 0.00 | 0.12 | 0.12 | 88 | 1007.4 |
| 20260506201630 | 64 | 182 | 2.0 | 4.0 | 0.00 | 0.12 | 0.12 | 88 | 1007.3 |
| 20260506201526 | 64 | 154 | 2.0 | 7.0 | 0.00 | 0.12 | 0.12 | 88 | 1007.2 |
| 20260506201422 | 64 | 190 | 4.0 | 8.0 | 0.00 | 0.12 | 0.12 | 88 | 1007.1 |
| 20260506201317 | 64 | 213 | 4.0 | 6.0 | 0.00 | 0.12 | 0.12 | 88 | 1007.3 |
| 20260506201229 | 64 | 191 | 4.0 | 6.0 | 0.00 | 0.12 | 0.12 | 88 | 1007.3 |
| 20260506201125 | 64 | 192 | 3.0 | 6.0 | 0.00 | 0.12 | 0.12 | 88 | 1007.3 |
| 20260506201020 | 64 | 190 | 5.0 | 8.0 | 0.00 | 0.12 | 0.12 | 88 | 1007.1 |
| 20260506200936 | 64 | 189 | 3.0 | 5.0 | 0.00 | 0.12 | 0.12 | 89 | 1007.3 |
| 20260506200827 | 64 | 188 | 4.0 | 5.0 | 0.00 | 0.12 | 0.12 | 88 | 1007.5 |
| 20260506200743 | 64 | 211 | 4.0 | 5.0 | 0.00 | 0.12 | 0.12 | 88 | 1007.3 |
| 20260506200638 | 64 | 215 | 1.0 | 5.0 | 0.00 | 0.12 | 0.12 | 88 | 1007.4 |
| 20260506200550 | 64 | 211 | 6.0 | 11.0 | 0.00 | 0.12 | 0.12 | 88 | 1007.3 |
| 20260506200445 | 64 | 188 | 6.0 | 9.0 | 0.00 | 0.12 | 0.12 | 89 | 1007.4 |
| 20260506200321 | 64 | 200 | 3.0 | 5.0 | 0.00 | 0.12 | 0.12 | 89 | 1007.5 |
| 20260506200217 | 64 | 221 | 4.0 | 6.0 | 0.00 | 0.12 | 0.12 | 89 | 1007.4 |
| 20260506200129 | 64 | 196 | 3.0 | 9.0 | 0.00 | 0.12 | 0.12 | 89 | 1007.4 |
| 20260506200023 | 64 | 188 | 5.0 | 9.0 | 0.00 | 0.12 | 0.12 | 90 | 1007.4 |
| 20260506195919 | 64 | 195 | 2.0 | 4.0 | 0.00 | 0.12 | 0.12 | 90 | 1007.5 |
| 20260506195830 | 64 | 183 | 2.0 | 4.0 | 0.00 | 0.12 | 0.12 | 90 | 1007.6 |
| 20260506195726 | 64 | 208 | 3.0 | 4.0 | 0.00 | 0.12 | 0.12 | 90 | 1007.3 |
| 20260506195641 | 64 | 195 | 4.0 | 5.0 | 0.00 | 0.12 | 0.12 | 90 | 1007.5 |
| 20260506195557 | 64 | 197 | 3.0 | 4.0 | 0.00 | 0.12 | 0.12 | 90 | 1007.4 |
| 20260506195429 | 64 | 192 | 2.0 | 3.0 | 0.00 | 0.12 | 0.12 | 90 | 1007.5 |
| 20260506195425 | 64 | 189 | 3.0 | 5.0 | 0.00 | 0.12 | 0.12 | 90 | 1007.6 |
| 20260506195220 | 64 | 264 | 2.0 | 4.0 | 0.00 | 0.12 | 0.12 | 90 | 1007.5 |
| 20260506195116 | 64 | 242 | 3.0 | 4.0 | 0.00 | 0.12 | 0.12 | 90 | 1007.7 |
| 20260506195027 | 64 | 241 | 2.0 | 4.0 | 0.00 | 0.12 | 0.12 | 90 | 1007.5 |
| 20260506194923 | 64 | 221 | 4.0 | 7.0 | 0.00 | 0.12 | 0.12 | 90 | 1007.7 |
| 20260506194818 | 64 | 218 | 3.0 | 6.0 | 0.00 | 0.12 | 0.12 | 90 | 1007.8 |
| 20260506194730 | 64 | 205 | 4.0 | 6.0 | 0.00 | 0.12 | 0.12 | 90 | 1007.7 |
| 20260506194626 | 64 | 166 | 3.0 | 4.0 | 0.00 | 0.12 | 0.12 | 90 | 1007.6 |
| 20260506194522 | 64 | 191 | 3.0 | 6.0 | 0.00 | 0.12 | 0.12 | 90 | 1007.7 |
| 20260506194437 | 64 | 288 | 2.0 | 3.0 | 0.00 | 0.12 | 0.12 | 90 | 1007.8 |
| 20260506194329 | 64 | 222 | 3.0 | 4.0 | 0.00 | 0.12 | 0.12 | 90 | 1007.6 |
| 20260506194245 | 64 | 200 | 2.0 | 4.0 | 0.00 | 0.12 | 0.12 | 90 | 1007.7 |
| 20260506194120 | 64 | 231 | 2.0 | 4.0 | 0.00 | 0.12 | 0.12 | 90 | 1007.7 |
| 20260506194035 | 64 | 261 | 2.0 | 4.0 | 0.00 | 0.12 | 0.12 | 90 | 1007.7 |
| 20260506193927 | 64 | 277 | 2.0 | 5.0 | 0.00 | 0.12 | 0.12 | 90 | 1007.5 |
| 20260506193823 | 64 | 246 | 3.0 | 4.0 | 0.00 | 0.12 | 0.12 | 90 | 1007.9 |
| 20260506193718 | 64 | 197 | 4.0 | 7.0 | 0.00 | 0.12 | 0.12 | 90 | 1007.6 |
| 20260506193630 | 64 | 194 | 3.0 | 5.0 | 0.00 | 0.12 | 0.12 | 90 | 1007.6 |
| 20260506193526 | 64 | 188 | 2.0 | 4.0 | 0.00 | 0.12 | 0.12 | 90 | 1007.7 |
| 20260506193421 | 64 | 202 | 3.0 | 4.0 | 0.00 | 0.12 | 0.12 | 90 | 1007.9 |
| 20260506193316 | 64 | 231 | 3.0 | 5.0 | 0.00 | 0.12 | 0.12 | 90 | 1007.8 |
| 20260506193228 | 64 | 245 | 2.0 | 4.0 | 0.00 | 0.12 | 0.12 | 90 | 1007.7 |
| 20260506193122 | 64 | 204 | 4.0 | 10.0 | 0.00 | 0.12 | 0.12 | 90 | 1007.8 |
| 20260506193036 | 64 | 211 | 4.0 | 10.0 | 0.00 | 0.12 | 0.12 | 90 | 1007.7 |
| 20260506192927 | 63 | 207 | 3.0 | 6.0 | 0.00 | 0.12 | 0.12 | 90 | 1007.9 |
| 20260506192822 | 64 | 190 | 5.0 | 8.0 | 0.00 | 0.12 | 0.12 | 90 | 1007.6 |
| 20260506192717 | 64 | 208 | 2.0 | 3.0 | 0.00 | 0.12 | 0.12 | 90 | 1007.9 |
| 20260506192629 | 64 | 195 | 3.0 | 5.0 | 0.00 | 0.12 | 0.12 | 90 | 1007.8 |
| 20260506192525 | 64 | 215 | 3.0 | 5.0 | 0.00 | 0.12 | 0.12 | 90 | 1007.9 |
| 20260506192419 | 64 | 218 | 3.0 | 5.0 | 0.00 | 0.12 | 0.12 | 90 | 1007.8 |
| 20260506192330 | 64 | 203 | 2.0 | 5.0 | 0.00 | 0.12 | 0.12 | 90 | 1008.1 |
| 20260506192225 | 63 | 212 | 3.0 | 5.0 | 0.00 | 0.12 | 0.12 | 90 | 1007.8 |
| 20260506192139 | 63 | 190 | 3.0 | 4.0 | 0.00 | 0.12 | 0.12 | 90 | 1007.8 |
| 20260506192035 | 63 | 213 | 3.0 | 6.0 | 0.00 | 0.12 | 0.12 | 90 | 1008.0 |
| 20260506191927 | 63 | 247 | 4.0 | 6.0 | 0.00 | 0.12 | 0.12 | 90 | 1008.0 |
| 20260506191822 | 63 | 226 | 3.0 | 5.0 | 0.00 | 0.12 | 0.12 | 89 | 1007.9 |
| 20260506191717 | 63 | 231 | 3.0 | 6.0 | 0.00 | 0.12 | 0.12 | 89 | 1008.0 |
| 20260506191649 | 64 | 215 | 3.0 | 6.0 | 0.00 | 0.12 | 0.12 | 90 | 1007.9 |
| 20260506191524 | 63 | 196 | 3.0 | 5.0 | 0.00 | 0.12 | 0.12 | 90 | 1007.9 |
| 20260506191419 | 63 | 216 | 3.0 | 4.0 | 0.00 | 0.12 | 0.12 | 90 | 1007.9 |
| 20260506191351 | 64 | 233 | 4.0 | 7.0 | 0.00 | 0.12 | 0.12 | 90 | 1007.9 |
| 20260506191225 | 64 | 199 | 4.0 | 6.0 | 0.00 | 0.12 | 0.12 | 90 | 1008.1 |
| 20260506191120 | 64 | 186 | 4.0 | 4.0 | 0.00 | 0.12 | 0.12 | 89 | 1008.0 |
| 20260506191031 | 63 | 215 | 3.0 | 5.0 | 0.00 | 0.12 | 0.12 | 89 | 1008.1 |
| 20260506190926 | 63 | 205 | 3.0 | 5.0 | 0.00 | 0.12 | 0.12 | 89 | 1008.0 |
| 20260506190821 | 63 | 215 | 6.0 | 8.0 | 0.00 | 0.12 | 0.12 | 89 | 1008.0 |
| 20260506190736 | 64 | 195 | 6.0 | 10.0 | 0.00 | 0.12 | 0.12 | 89 | 1007.9 |
| 20260506190627 | 63 | 219 | 3.0 | 5.0 | 0.00 | 0.12 | 0.12 | 89 | 1008.1 |
| 20260506190523 | 63 | 223 | 5.0 | 10.0 | 0.00 | 0.12 | 0.12 | 89 | 1007.9 |
| 20260506190418 | 63 | 222 | 6.0 | 10.0 | 0.00 | 0.12 | 0.12 | 89 | 1008.0 |
| 20260506190329 | 63 | 247 | 6.0 | 11.0 | 0.00 | 0.12 | 0.12 | 89 | 1007.9 |
| 20260506190225 | 64 | 277 | 3.0 | 9.0 | 0.00 | 0.12 | 0.12 | 89 | 1008.0 |
| 20260506190120 | 64 | 196 | 8.0 | 12.0 | 0.00 | 0.12 | 0.12 | 89 | 1007.8 |
| 20260506190015 | 64 | 203 | 4.0 | 6.0 | 0.00 | 0.12 | 0.12 | 90 | 1008.0 |
| 20260506185927 | 64 | 226 | 4.0 | 8.0 | 0.00 | 0.12 | 0.12 | 90 | 1008.0 |
| 20260506185822 | 64 | 209 | 4.0 | 7.0 | 0.00 | 0.12 | 0.12 | 90 | 1008.2 |
| 20260506185717 | 64 | 201 | 2.0 | 5.0 | 0.00 | 0.12 | 0.12 | 90 | 1008.0 |
| 20260506185629 | 64 | 205 | 3.0 | 3.0 | 0.00 | 0.12 | 0.12 | 90 | 1008.1 |
| 20260506185544 | 64 | 190 | 4.0 | 9.0 | 0.00 | 0.12 | 0.12 | 89 | 1008.2 |
| 20260506185438 | 64 | 202 | 6.0 | 9.0 | 0.00 | 0.12 | 0.12 | 89 | 1008.1 |
| 20260506185329 | 64 | 203 | 3.0 | 6.0 | 0.00 | 0.12 | 0.12 | 89 | 1007.9 |
| 20260506185245 | 64 | 206 | 4.0 | 6.0 | 0.00 | 0.12 | 0.12 | 89 | 1008.1 |
| 20260506185120 | 64 | 235 | 3.0 | 6.0 | 0.00 | 0.12 | 0.12 | 89 | 1007.9 |
| 20260506185030 | 64 | 225 | 4.0 | 6.0 | 0.00 | 0.12 | 0.12 | 89 | 1008.1 |
| 20260506184926 | 64 | 207 | 3.0 | 5.0 | 0.00 | 0.12 | 0.12 | 89 | 1008.1 |
| 20260506184822 | 64 | 209 | 5.0 | 9.0 | 0.00 | 0.12 | 0.12 | 88 | 1008.0 |
| 20260506184716 | 64 | 203 | 3.0 | 5.0 | 0.00 | 0.12 | 0.12 | 89 | 1008.1 |
| 20260506184628 | 64 | 203 | 6.0 | 11.0 | 0.00 | 0.12 | 0.12 | 88 | 1008.1 |
| 20260506184602 | 64 | 195 | 5.0 | 19.0 | 0.00 | 0.12 | 0.12 | 88 | 1008.1 |
| 20260506184450 | 64 | 225 | 3.0 | 9.0 | 0.00 | 0.12 | 0.12 | 88 | 1008.0 |
| 20260506184329 | 64 | 225 | 5.0 | 10.0 | 0.00 | 0.12 | 0.12 | 88 | 1008.0 |
| 20260506184243 | 64 | 202 | 3.0 | 8.0 | 0.00 | 0.12 | 0.12 | 88 | 1008.1 |
| 20260506184119 | 64 | 215 | 5.0 | 8.0 | 0.00 | 0.12 | 0.12 | 88 | 1008.1 |
| 20260506184029 | 64 | 198 | 5.0 | 9.0 | 0.00 | 0.12 | 0.12 | 88 | 1008.1 |
| 20260506183924 | 64 | 202 | 6.0 | 9.0 | 0.00 | 0.12 | 0.12 | 88 | 1008.1 |
| 20260506183819 | 64 | 195 | 4.0 | 5.0 | 0.00 | 0.12 | 0.12 | 88 | 1008.1 |
| 20260506183730 | 64 | 214 | 2.0 | 6.0 | 0.00 | 0.12 | 0.12 | 87 | 1008.1 |
| 20260506183624 | 64 | 262 | 3.0 | 5.0 | 0.00 | 0.12 | 0.12 | 87 | 1008.1 |
| 20260506183539 | 64 | 239 | 3.0 | 9.0 | 0.00 | 0.12 | 0.12 | 87 | 1008.3 |
| 20260506183431 | 64 | 210 | 5.0 | 11.0 | 0.00 | 0.12 | 0.12 | 87 | 1008.0 |
| 20260506183326 | 64 | 212 | 9.0 | 15.0 | 0.00 | 0.12 | 0.12 | 88 | 1008.3 |
| 20260506183221 | 64 | 217 | 5.0 | 8.0 | 0.00 | 0.12 | 0.12 | 89 | 1008.0 |
| 20260506183116 | 64 | 193 | 3.0 | 6.0 | 0.00 | 0.12 | 0.12 | 89 | 1008.1 |
| 20260506183028 | 64 | 263 | 2.0 | 3.0 | 0.00 | 0.12 | 0.12 | 89 | 1008.1 |
| 20260506182923 | 64 | 214 | 1.0 | 4.0 | 0.00 | 0.12 | 0.12 | 89 | 1008.1 |
| 20260506182838 | 65 | 210 | 5.0 | 11.0 | 0.00 | 0.12 | 0.12 | 89 | 1008.2 |
| 20260506182729 | 65 | 194 | 4.0 | 9.0 | 0.00 | 0.12 | 0.12 | 89 | 1008.1 |
| 20260506182625 | 64 | 204 | 3.0 | 4.0 | 0.00 | 0.12 | 0.12 | 89 | 1008.1 |
| 20260506182519 | 65 | 202 | 4.0 | 6.0 | 0.00 | 0.12 | 0.12 | 89 | 1008.3 |
| 20260506182430 | 65 | 211 | 3.0 | 5.0 | 0.00 | 0.12 | 0.12 | 90 | 1008.1 |
| 20260506182325 | 65 | 218 | 5.0 | 8.0 | 0.01 | 0.12 | 0.12 | 90 | 1008.1 |
| 20260506182221 | 65 | 192 | 3.0 | 4.0 | 0.01 | 0.12 | 0.12 | 90 | 1007.9 |
| 20260506182116 | 65 | 260 | 2.0 | 3.0 | 0.01 | 0.12 | 0.12 | 90 | 1008.0 |
| 20260506182027 | 65 | 205 | 1.0 | 6.0 | 0.01 | 0.12 | 0.12 | 90 | 1008.1 |
| 20260506181923 | 65 | 201 | 4.0 | 6.0 | 0.02 | 0.12 | 0.12 | 90 | 1007.9 |
| 20260506181838 | 65 | 194 | 2.0 | 4.0 | 0.02 | 0.12 | 0.12 | 90 | 1008.1 |
| 20260506181729 | 65 | 231 | 3.0 | 4.0 | 0.02 | 0.12 | 0.12 | 91 | 1008.2 |
| 20260506181625 | 65 | 190 | 2.0 | 4.0 | 0.02 | 0.12 | 0.12 | 91 | 1008.0 |
| 20260506181520 | 65 | 199 | 2.0 | 3.0 | 0.02 | 0.12 | 0.12 | 91 | 1008.1 |
| 20260506181432 | 65 | 199 | 1.0 | 3.0 | 0.02 | 0.12 | 0.12 | 91 | 1008.0 |
| 20260506181326 | 65 | 186 | 2.0 | 3.0 | 0.02 | 0.12 | 0.12 | 91 | 1008.1 |
| 20260506181221 | 65 | 222 | 2.0 | 3.0 | 0.02 | 0.12 | 0.12 | 91 | 1008.1 |
| 20260506181117 | 65 | 194 | 2.0 | 3.0 | 0.02 | 0.12 | 0.12 | 91 | 1008.1 |
| 20260506181028 | 65 | 196 | 1.0 | 3.0 | 0.03 | 0.12 | 0.12 | 91 | 1008.2 |
| 20260506180923 | 65 | 70 | 0.0 | 2.0 | 0.03 | 0.12 | 0.12 | 91 | 1008.2 |
| 20260506180819 | 65 | 196 | 1.0 | 2.0 | 0.03 | 0.12 | 0.12 | 91 | 1008.2 |
| 20260506180730 | 65 | 173 | 1.0 | 2.0 | 0.03 | 0.12 | 0.12 | 91 | 1008.1 |
| 20260506180626 | 65 | 196 | 1.0 | 2.0 | 0.03 | 0.12 | 0.12 | 91 | 1008.3 |
| 20260506180541 | 65 | 213 | 1.0 | 2.0 | 0.03 | 0.12 | 0.12 | 90 | 1008.4 |
| 20260506180416 | 65 | 186 | 2.0 | 2.0 | 0.03 | 0.12 | 0.12 | 90 | 1008.3 |
| 20260506180327 | 65 | 187 | 2.0 | 3.0 | 0.03 | 0.12 | 0.12 | 90 | 1008.5 |
| 20260506180223 | 65 | 206 | 1.0 | 2.0 | 0.03 | 0.12 | 0.12 | 90 | 1008.4 |
| 20260506180118 | 65 | 186 | 1.0 | 2.0 | 0.04 | 0.12 | 0.12 | 90 | 1008.3 |
| 20260506180029 | 65 | 156 | 3.0 | 6.0 | 0.04 | 0.12 | 0.12 | 90 | 1008.4 |
| 20260506175924 | 65 | 191 | 2.0 | 4.0 | 0.04 | 0.12 | 0.12 | 91 | 1008.2 |
| 20260506175819 | 65 | 187 | 1.0 | 1.0 | 0.04 | 0.12 | 0.12 | 90 | 1008.4 |
| 20260506175731 | 65 | 191 | 2.0 | 2.0 | 0.04 | 0.12 | 0.12 | 90 | 1008.6 |
| 20260506175626 | 65 | 175 | 1.0 | 2.0 | 0.04 | 0.12 | 0.12 | 90 | 1008.4 |
| 20260506175521 | 65 | 217 | 1.0 | 2.0 | 0.04 | 0.12 | 0.12 | 90 | 1008.3 |
| 20260506175416 | 65 | 0.0 | 1.0 | 0.04 | 0.12 | 0.12 | 90 | 1008.4 | |
| 20260506175328 | 65 | 204 | 1.0 | 2.0 | 0.04 | 0.12 | 0.12 | 90 | 1008.3 |
| 20260506175222 | 65 | 193 | 2.0 | 3.0 | 0.04 | 0.12 | 0.12 | 90 | 1008.5 |
| 20260506175118 | 65 | 185 | 2.0 | 2.0 | 0.04 | 0.12 | 0.12 | 90 | 1008.5 |
| 20260506175029 | 65 | 190 | 2.0 | 3.0 | 0.04 | 0.12 | 0.12 | 90 | 1008.2 |
| 20260506174924 | 65 | 199 | 3.0 | 4.0 | 0.04 | 0.12 | 0.12 | 89 | 1008.6 |
| 20260506174819 | 65 | 201 | 4.0 | 5.0 | 0.04 | 0.12 | 0.12 | 89 | 1008.5 |
| 20260506174730 | 65 | 208 | 2.0 | 4.0 | 0.04 | 0.12 | 0.12 | 89 | 1008.5 |
| 20260506174626 | 65 | 200 | 3.0 | 5.0 | 0.04 | 0.12 | 0.12 | 90 | 1008.6 |
| 20260506174521 | 65 | 271 | 1.0 | 3.0 | 0.05 | 0.12 | 0.12 | 90 | 1008.5 |
| 20260506174416 | 65 | 228 | 2.0 | 4.0 | 0.05 | 0.12 | 0.12 | 90 | 1008.5 |
| 20260506174328 | 65 | 215 | 2.0 | 3.0 | 0.05 | 0.12 | 0.12 | 89 | 1008.6 |
| 20260506174223 | 65 | 208 | 3.0 | 5.0 | 0.05 | 0.12 | 0.12 | 89 | 1008.6 |
| 20260506174118 | 65 | 213 | 3.0 | 4.0 | 0.05 | 0.12 | 0.12 | 90 | 1008.5 |
| 20260506174029 | 65 | 203 | 2.0 | 4.0 | 0.06 | 0.12 | 0.12 | 90 | 1008.5 |
| 20260506173924 | 65 | 185 | 2.0 | 4.0 | 0.06 | 0.12 | 0.12 | 90 | 1008.4 |
| 20260506173819 | 65 | 180 | 1.0 | 2.0 | 0.06 | 0.12 | 0.12 | 90 | 1008.6 |
| 20260506173730 | 65 | 225 | 2.0 | 3.0 | 0.06 | 0.12 | 0.12 | 90 | 1008.5 |
| 20260506173625 | 65 | 230 | 1.0 | 4.0 | 0.06 | 0.12 | 0.12 | 90 | 1008.5 |
| 20260506173521 | 65 | 213 | 2.0 | 4.0 | 0.06 | 0.12 | 0.12 | 90 | 1008.3 |
| 20260506173416 | 65 | 292 | 2.0 | 3.0 | 0.06 | 0.12 | 0.12 | 90 | 1008.5 |
| 20260506173327 | 65 | 188 | 0.0 | 2.0 | 0.06 | 0.12 | 0.12 | 90 | 1008.3 |
| 20260506173223 | 65 | 285 | 1.0 | 3.0 | 0.06 | 0.12 | 0.12 | 90 | 1008.4 |
| 20260506173118 | 65 | 314 | 0.0 | 3.0 | 0.06 | 0.12 | 0.12 | 91 | 1008.1 |
| 20260506173029 | 65 | 202 | 2.0 | 3.0 | 0.06 | 0.12 | 0.12 | 91 | 1008.2 |
| 20260506172925 | 65 | 213 | 1.0 | 2.0 | 0.06 | 0.12 | 0.12 | 91 | 1008.2 |
| 20260506172820 | 65 | 258 | 1.0 | 2.0 | 0.07 | 0.12 | 0.12 | 90 | 1008.3 |
| 20260506172736 | 65 | 212 | 2.0 | 3.0 | 0.07 | 0.12 | 0.12 | 91 | 1008.3 |
| 20260506172627 | 65 | 206 | 3.0 | 4.0 | 0.07 | 0.12 | 0.12 | 91 | 1008.3 |
| 20260506172522 | 65 | 178 | 1.0 | 3.0 | 0.07 | 0.12 | 0.12 | 91 | 1008.2 |
| 20260506172417 | 65 | 0.0 | 2.0 | 0.07 | 0.12 | 0.12 | 92 | 1008.3 | |
| 20260506172329 | 64 | 199 | 2.0 | 3.0 | 0.07 | 0.11 | 0.11 | 91 | 1008.4 |
| 20260506172224 | 65 | 202 | 2.0 | 5.0 | 0.07 | 0.11 | 0.11 | 91 | 1008.3 |
| 20260506172120 | 65 | 182 | 2.0 | 4.0 | 0.07 | 0.11 | 0.11 | 92 | 1008.3 |
| 20260506172051 | 65 | 190 | 2.0 | 2.0 | 0.07 | 0.11 | 0.11 | 92 | 1008.4 |
| 20260506171946 | 65 | 200 | 2.0 | 3.0 | 0.07 | 0.11 | 0.11 | 91 | 1008.4 |
| 20260506171822 | 64 | 193 | 2.0 | 3.0 | 0.07 | 0.11 | 0.11 | 92 | 1008.2 |
| 20260506171717 | 64 | 127 | 1.0 | 3.0 | 0.07 | 0.11 | 0.11 | 91 | 1008.1 |
| 20260506171649 | 64 | 185 | 2.0 | 3.0 | 0.07 | 0.10 | 0.10 | 91 | 1008.5 |
| 20260506171524 | 64 | 196 | 3.0 | 4.0 | 0.07 | 0.10 | 0.10 | 91 | 1008.5 |
| 20260506171419 | 64 | 227 | 2.0 | 4.0 | 0.07 | 0.10 | 0.10 | 91 | 1008.3 |
| 20260506171331 | 64 | 185 | 2.0 | 2.0 | 0.07 | 0.10 | 0.10 | 92 | 1008.4 |
| 20260506171226 | 64 | 176 | 2.0 | 2.0 | 0.07 | 0.10 | 0.10 | 91 | 1008.5 |
| 20260506171122 | 64 | 186 | 1.0 | 2.0 | 0.08 | 0.10 | 0.10 | 91 | 1008.6 |
| 20260506171017 | 64 | 178 | 1.0 | 2.0 | 0.07 | 0.09 | 0.09 | 91 | 1008.5 |
| 20260506170928 | 64 | 185 | 2.0 | 2.0 | 0.07 | 0.09 | 0.09 | 91 | 1008.5 |
| 20260506170824 | 64 | 174 | 2.0 | 2.0 | 0.08 | 0.09 | 0.09 | 91 | 1008.5 |
| 20260506170719 | 64 | 179 | 1.0 | 2.0 | 0.07 | 0.09 | 0.09 | 91 | 1008.6 |
| 20260506170631 | 64 | 131 | 0.0 | 1.0 | 0.08 | 0.09 | 0.09 | 90 | 1008.7 |
| 20260506170526 | 64 | 169 | 2.0 | 3.0 | 0.08 | 0.09 | 0.09 | 90 | 1008.6 |
| 20260506170421 | 64 | 175 | 1.0 | 2.0 | 0.08 | 0.09 | 0.09 | 90 | 1008.6 |
| 20260506170316 | 64 | 173 | 2.0 | 4.0 | 0.08 | 0.09 | 0.09 | 90 | 1008.6 |
| 20260506170228 | 64 | 106 | 2.0 | 3.0 | 0.09 | 0.09 | 0.09 | 90 | 1008.6 |
| 20260506170122 | 64 | 184 | 2.0 | 2.0 | 0.08 | 0.09 | 0.09 | 90 | 1008.8 |
| 20260506170017 | 64 | 177 | 2.0 | 3.0 | 0.08 | 0.09 | 0.09 | 90 | 1008.7 |
| 20260506165928 | 64 | 207 | 4.0 | 6.0 | 0.08 | 0.09 | 0.09 | 89 | 1008.8 |
| 20260506165823 | 64 | 196 | 3.0 | 5.0 | 0.08 | 0.08 | 0.08 | 90 | 1008.7 |
| 20260506165739 | 64 | 158 | 1.0 | 2.0 | 0.08 | 0.08 | 0.08 | 90 | 1009.0 |
| 20260506165630 | 64 | 173 | 1.0 | 2.0 | 0.08 | 0.08 | 0.08 | 90 | 1008.8 |
| 20260506165525 | 64 | 169 | 2.0 | 3.0 | 0.08 | 0.08 | 0.08 | 90 | 1008.8 |
| 20260506165440 | 64 | 192 | 2.0 | 2.0 | 0.08 | 0.08 | 0.08 | 89 | 1009.0 |
| 20260506165316 | 64 | 194 | 1.0 | 2.0 | 0.08 | 0.08 | 0.08 | 89 | 1009.0 |
| 20260506165227 | 64 | 201 | 3.0 | 6.0 | 0.08 | 0.08 | 0.08 | 89 | 1009.0 |
| 20260506165122 | 64 | 208 | 5.0 | 7.0 | 0.08 | 0.08 | 0.08 | 89 | 1009.1 |
| 20260506165018 | 64 | 181 | 3.0 | 5.0 | 0.08 | 0.08 | 0.08 | 89 | 1009.2 |
| 20260506164929 | 64 | 191 | 2.0 | 6.0 | 0.08 | 0.08 | 0.08 | 89 | 1009.1 |
| 20260506164825 | 64 | 187 | 3.0 | 4.0 | 0.08 | 0.08 | 0.08 | 89 | 1009.3 |
| 20260506164740 | 64 | 208 | 2.0 | 3.0 | 0.08 | 0.08 | 0.08 | 89 | 1009.3 |
| 20260506164615 | 64 | 195 | 1.0 | 3.0 | 0.08 | 0.08 | 0.08 | 89 | 1009.3 |
| 20260506164527 | 64 | 197 | 3.0 | 4.0 | 0.07 | 0.07 | 0.07 | 89 | 1009.3 |
| 20260506164422 | 64 | 195 | 3.0 | 4.0 | 0.07 | 0.07 | 0.07 | 88 | 1009.3 |
| 20260506164317 | 64 | 207 | 3.0 | 4.0 | 0.07 | 0.07 | 0.07 | 88 | 1009.5 |
| 20260506164249 | 64 | 185 | 3.0 | 4.0 | 0.07 | 0.07 | 0.07 | 89 | 1009.5 |
| 20260506164124 | 64 | 192 | 2.0 | 4.0 | 0.07 | 0.07 | 0.07 | 89 | 1009.5 |
| 20260506164019 | 64 | 204 | 3.0 | 5.0 | 0.07 | 0.07 | 0.07 | 88 | 1009.5 |
| 20260506163930 | 64 | 189 | 2.0 | 3.0 | 0.07 | 0.07 | 0.07 | 88 | 1009.5 |
| 20260506163826 | 64 | 206 | 4.0 | 7.0 | 0.07 | 0.07 | 0.07 | 87 | 1009.6 |
| 20260506163721 | 64 | 202 | 4.0 | 7.0 | 0.06 | 0.06 | 0.06 | 88 | 1009.9 |
| 20260506163648 | 64 | 205 | 5.0 | 6.0 | 0.06 | 0.06 | 0.06 | 88 | 1009.8 |
| 20260506163628 | 64 | 259 | 2.0 | 3.0 | 0.06 | 0.06 | 0.06 | 88 | 1009.5 |
| 20260506163423 | 64 | 181 | 2.0 | 4.0 | 0.06 | 0.06 | 0.06 | 88 | 1009.5 |
| 20260506163318 | 64 | 169 | 2.0 | 4.0 | 0.06 | 0.06 | 0.06 | 88 | 1009.6 |
| 20260506163249 | 64 | 193 | 3.0 | 4.0 | 0.06 | 0.06 | 0.06 | 88 | 1009.4 |
| 20260506163124 | 65 | 206 | 2.0 | 4.0 | 0.06 | 0.06 | 0.06 | 87 | 1009.5 |
| 20260506163039 | 64 | 185 | 2.0 | 3.0 | 0.06 | 0.06 | 0.06 | 87 | 1009.7 |
| 20260506162931 | 64 | 193 | 3.0 | 4.0 | 0.06 | 0.06 | 0.06 | 86 | 1009.7 |
| 20260506162826 | 65 | 196 | 4.0 | 5.0 | 0.05 | 0.05 | 0.05 | 86 | 1009.6 |
| 20260506162722 | 65 | 183 | 2.0 | 3.0 | 0.05 | 0.05 | 0.05 | 86 | 1009.5 |
| 20260506162617 | 65 | 173 | 2.0 | 4.0 | 0.05 | 0.05 | 0.05 | 85 | 1009.4 |
| 20260506162529 | 65 | 201 | 3.0 | 4.0 | 0.05 | 0.05 | 0.05 | 85 | 1009.7 |
| 20260506162424 | 65 | 200 | 3.0 | 5.0 | 0.04 | 0.04 | 0.04 | 85 | 1009.7 |
| 20260506162339 | 65 | 214 | 3.0 | 4.0 | 0.04 | 0.04 | 0.04 | 85 | 1009.4 |
| 20260506162231 | 65 | 205 | 3.0 | 4.0 | 0.04 | 0.04 | 0.04 | 85 | 1009.6 |
| 20260506162126 | 65 | 174 | 2.0 | 4.0 | 0.04 | 0.04 | 0.04 | 85 | 1009.8 |
| 20260506162022 | 65 | 194 | 3.0 | 4.0 | 0.04 | 0.04 | 0.04 | 84 | 1009.6 |
| 20260506161917 | 65 | 204 | 1.0 | 2.0 | 0.04 | 0.04 | 0.04 | 84 | 1009.6 |
| 20260506161828 | 65 | 199 | 2.0 | 4.0 | 0.04 | 0.04 | 0.04 | 83 | 1009.8 |
| 20260506161723 | 65 | 193 | 3.0 | 5.0 | 0.04 | 0.04 | 0.04 | 82 | 1009.7 |
| 20260506161618 | 66 | 193 | 2.0 | 4.0 | 0.03 | 0.03 | 0.03 | 82 | 1009.8 |
| 20260506161529 | 66 | 192 | 2.0 | 4.0 | 0.03 | 0.03 | 0.03 | 82 | 1009.8 |
| 20260506161424 | 66 | 217 | 2.0 | 3.0 | 0.03 | 0.03 | 0.03 | 82 | 1009.7 |
| 20260506161319 | 66 | 203 | 2.0 | 5.0 | 0.02 | 0.02 | 0.02 | 81 | 1010.0 |
| 20260506161231 | 66 | 213 | 1.0 | 4.0 | 0.02 | 0.02 | 0.02 | 81 | 1009.9 |
| 20260506161125 | 66 | 204 | 3.0 | 4.0 | 0.02 | 0.02 | 0.02 | 80 | 1009.9 |
| 20260506161020 | 67 | 206 | 1.0 | 3.0 | 0.02 | 0.02 | 0.02 | 79 | 1009.9 |
| 20260506160915 | 67 | 182 | 2.0 | 4.0 | 0.02 | 0.02 | 0.02 | 79 | 1009.8 |
| 20260506160827 | 67 | 222 | 3.0 | 6.0 | 0.02 | 0.02 | 0.02 | 78 | 1009.6 |
| 20260506160721 | 67 | 195 | 2.0 | 4.0 | 0.02 | 0.02 | 0.02 | 78 | 1009.6 |
| 20260506160617 | 67 | 235 | 3.0 | 4.0 | 0.01 | 0.01 | 0.01 | 77 | 1009.6 |
| 20260506160528 | 67 | 173 | 2.0 | 3.0 | 0.01 | 0.01 | 0.01 | 77 | 1009.6 |
| 20260506160423 | 67 | 195 | 3.0 | 5.0 | 0.01 | 0.01 | 0.01 | 76 | 1009.8 |
| 20260506160319 | 67 | 206 | 2.0 | 4.0 | 0.01 | 0.01 | 0.01 | 76 | 1009.8 |
| 20260506160230 | 67 | 193 | 3.0 | 5.0 | 0.00 | 0.00 | 0.00 | 76 | 1009.7 |
| 20260506160137 | 68 | 183 | 2.0 | 2.0 | 0.00 | 0.00 | 0.00 | 77 | 1010.0 |
| 20260506160019 | 68 | 186 | 1.0 | 2.0 | 0.00 | 0.00 | 0.00 | 77 | 1009.7 |
| 20260506155951 | 68 | 183 | 2.0 | 2.0 | 0.00 | 0.00 | 0.00 | 76 | 1009.8 |
| 20260506155826 | 68 | 182 | 2.0 | 3.0 | 0.00 | 0.00 | 0.00 | 76 | 1009.8 |
| 20260506155740 | 68 | 190 | 2.0 | 3.0 | 0.00 | 0.00 | 0.00 | 74 | 1009.8 |
| 20260506155631 | 68 | 214 | 1.0 | 3.0 | 0.00 | 0.00 | 0.00 | 74 | 1009.9 |
| 20260506155526 | 68 | 203 | 1.0 | 5.0 | 0.00 | 0.00 | 0.00 | 73 | 1010.0 |
| 20260506155419 | 68 | 220 | 4.0 | 5.0 | 0.00 | 0.00 | 0.00 | 72 | 1010.0 |
| 20260506155335 | 68 | 185 | 3.0 | 7.0 | 0.00 | 0.00 | 0.00 | 72 | 1010.0 |
| 20260506155226 | 68 | 226 | 3.0 | 7.0 | 0.00 | 0.00 | 0.00 | 71 | 1009.8 |
| 20260506155121 | 68 | 201 | 7.0 | 11.0 | 0.00 | 0.00 | 0.00 | 70 | 1009.7 |
| 20260506155017 | 68 | 205 | 6.0 | 11.0 | 0.00 | 0.00 | 0.00 | 70 | 1009.8 |
| 20260506154928 | 69 | 201 | 5.0 | 12.0 | 0.00 | 0.00 | 0.00 | 69 | 1009.8 |
| 20260506154822 | 69 | 285 | 3.0 | 4.0 | 0.00 | 0.00 | 0.00 | 69 | 1009.6 |
| 20260506154717 | 69 | 206 | 4.0 | 9.0 | 0.00 | 0.00 | 0.00 | 70 | 1009.6 |
| 20260506154629 | 69 | 218 | 3.0 | 5.0 | 0.00 | 0.00 | 0.00 | 70 | 1009.8 |
| 20260506154523 | 69 | 224 | 3.0 | 8.0 | 0.00 | 0.00 | 0.00 | 69 | 1009.8 |
| 20260506154419 | 69 | 200 | 3.0 | 4.0 | 0.00 | 0.00 | 0.00 | 70 | 1009.8 |
| 20260506154330 | 69 | 246 | 3.0 | 9.0 | 0.00 | 0.00 | 0.00 | 69 | 1009.8 |
| 20260506154225 | 69 | 193 | 4.0 | 7.0 | 0.00 | 0.00 | 0.00 | 69 | 1009.9 |
| 20260506154120 | 69 | 209 | 3.0 | 6.0 | 0.00 | 0.00 | 0.00 | 68 | 1010.1 |
| 20260506154015 | 69 | 226 | 5.0 | 10.0 | 0.00 | 0.00 | 0.00 | 68 | 1010.0 |
| 20260506153926 | 69 | 191 | 4.0 | 7.0 | 0.00 | 0.00 | 0.00 | 69 | 1009.9 |
| 20260506153821 | 69 | 252 | 4.0 | 6.0 | 0.00 | 0.00 | 0.00 | 68 | 1009.8 |
| 20260506153715 | 69 | 209 | 2.0 | 4.0 | 0.00 | 0.00 | 0.00 | 68 | 1010.0 |
| 20260506153626 | 69 | 211 | 5.0 | 13.0 | 0.00 | 0.00 | 0.00 | 68 | 1010.0 |
| 20260506153521 | 70 | 203 | 5.0 | 10.0 | 0.00 | 0.00 | 0.00 | 68 | 1010.0 |
| 20260506153416 | 70 | 189 | 4.0 | 9.0 | 0.00 | 0.00 | 0.00 | 68 | 1009.9 |
| 20260506153348 | 69 | 215 | 3.0 | 8.0 | 0.00 | 0.00 | 0.00 | 68 | 1009.9 |
| 20260506153224 | 70 | 187 | 5.0 | 7.0 | 0.00 | 0.00 | 0.00 | 68 | 1009.8 |
| 20260506153119 | 70 | 206 | 4.0 | 7.0 | 0.00 | 0.00 | 0.00 | 68 | 1009.7 |
| 20260506153031 | 70 | 200 | 4.0 | 8.0 | 0.00 | 0.00 | 0.00 | 68 | 1009.6 |
| 20260506153005 | 69 | 195 | 3.0 | 8.0 | 0.00 | 0.00 | 0.00 | 69 | 1009.6 |
| 20260506152820 | 69 | 201 | 3.0 | 5.0 | 0.00 | 0.00 | 0.00 | 68 | 1009.7 |
| 20260506152730 | 69 | 237 | 2.0 | 6.0 | 0.00 | 0.00 | 0.00 | 68 | 1009.7 |
| 20260506152625 | 69 | 201 | 4.0 | 6.0 | 0.00 | 0.00 | 0.00 | 68 | 1009.7 |
| 20260506152520 | 69 | 196 | 4.0 | 5.0 | 0.00 | 0.00 | 0.00 | 68 | 1009.5 |
| 20260506152415 | 69 | 192 | 3.0 | 6.0 | 0.00 | 0.00 | 0.00 | 67 | 1009.7 |
| 20260506152347 | 69 | 200 | 5.0 | 10.0 | 0.00 | 0.00 | 0.00 | 68 | 1009.7 |
| 20260506152221 | 69 | 229 | 4.0 | 7.0 | 0.00 | 0.00 | 0.00 | 68 | 1009.8 |
| 20260506152116 | 69 | 192 | 4.0 | 6.0 | 0.00 | 0.00 | 0.00 | 68 | 1009.8 |
| 20260506152027 | 69 | 227 | 3.0 | 4.0 | 0.00 | 0.00 | 0.00 | 68 | 1009.6 |
| 20260506151922 | 69 | 208 | 4.0 | 5.0 | 0.00 | 0.00 | 0.00 | 68 | 1009.8 |
| 20260506151817 | 69 | 204 | 4.0 | 6.0 | 0.00 | 0.00 | 0.00 | 67 | 1009.7 |
| 20260506151728 | 69 | 251 | 2.0 | 5.0 | 0.00 | 0.00 | 0.00 | 67 | 1009.7 |
| 20260506151623 | 69 | 208 | 4.0 | 7.0 | 0.00 | 0.00 | 0.00 | 67 | 1009.7 |
| 20260506151517 | 69 | 247 | 2.0 | 3.0 | 0.00 | 0.00 | 0.00 | 67 | 1009.9 |
| 20260506151429 | 69 | 220 | 3.0 | 6.0 | 0.00 | 0.00 | 0.00 | 68 | 1009.7 |
| 20260506151324 | 69 | 203 | 3.0 | 4.0 | 0.00 | 0.00 | 0.00 | 68 | 1009.7 |
| 20260506151218 | 69 | 272 | 2.0 | 4.0 | 0.00 | 0.00 | 0.00 | 67 | 1009.7 |
| 20260506151149 | 69 | 212 | 6.0 | 9.0 | 0.00 | 0.00 | 0.00 | 67 | 1009.8 |
| 20260506151024 | 69 | 194 | 6.0 | 11.0 | 0.00 | 0.00 | 0.00 | 68 | 1009.8 |
| 20260506150921 | 69 | 204 | 5.0 | 7.0 | 0.00 | 0.00 | 0.00 | 68 | 1009.9 |
| 20260506150911 | 69 | 198 | 5.0 | 8.0 | 0.00 | 0.00 | 0.00 | 68 | 1009.9 |
| 20260506150726 | 69 | 238 | 5.0 | 7.0 | 0.00 | 0.00 | 0.00 | 68 | 1009.9 |
| 20260506150633 | 69 | 199 | 4.0 | 7.0 | 0.00 | 0.00 | 0.00 | 69 | 1010.1 |
| 20260506150515 | 69 | 192 | 4.0 | 6.0 | 0.00 | 0.00 | 0.00 | 68 | 1010.0 |
| 20260506150426 | 69 | 201 | 5.0 | 8.0 | 0.00 | 0.00 | 0.00 | 68 | 1009.9 |
| 20260506150322 | 69 | 218 | 6.0 | 13.0 | 0.00 | 0.00 | 0.00 | 67 | 1010.0 |
| 20260506150216 | 69 | 203 | 6.0 | 10.0 | 0.00 | 0.00 | 0.00 | 68 | 1010.0 |
| 20260506150128 | 69 | 223 | 6.0 | 11.0 | 0.00 | 0.00 | 0.00 | 66 | 1010.0 |
| 20260506150022 | 70 | 248 | 2.0 | 8.0 | 0.00 | 0.00 | 0.00 | 68 | 1010.2 |
| 20260506145936 | 70 | 203 | 7.0 | 12.0 | 0.00 | 0.00 | 0.00 | 67 | 1010.1 |
| 20260506145828 | 70 | 195 | 7.0 | 11.0 | 0.00 | 0.00 | 0.00 | 66 | 1009.9 |
| 20260506145724 | 70 | 204 | 6.0 | 11.0 | 0.00 | 0.00 | 0.00 | 66 | 1010.0 |
| 20260506145618 | 70 | 202 | 3.0 | 9.0 | 0.00 | 0.00 | 0.00 | 67 | 1009.8 |
| 20260506145530 | 70 | 201 | 4.0 | 7.0 | 0.00 | 0.00 | 0.00 | 66 | 1009.8 |
| 20260506145425 | 70 | 222 | 4.0 | 7.0 | 0.00 | 0.00 | 0.00 | 66 | 1010.0 |
| 20260506145321 | 70 | 205 | 3.0 | 8.0 | 0.00 | 0.00 | 0.00 | 66 | 1009.9 |
| 20260506145236 | 70 | 206 | 6.0 | 10.0 | 0.00 | 0.00 | 0.00 | 66 | 1009.9 |
| 20260506145127 | 70 | 205 | 5.0 | 6.0 | 0.00 | 0.00 | 0.00 | 67 | 1009.8 |
| 20260506145022 | 70 | 209 | 3.0 | 4.0 | 0.00 | 0.00 | 0.00 | 66 | 1010.0 |
| 20260506144917 | 70 | 206 | 4.0 | 8.0 | 0.00 | 0.00 | 0.00 | 67 | 1009.9 |
| 20260506144828 | 70 | 211 | 3.0 | 6.0 | 0.00 | 0.00 | 0.00 | 67 | 1009.8 |
| 20260506144723 | 70 | 202 | 2.0 | 4.0 | 0.00 | 0.00 | 0.00 | 67 | 1009.9 |
| 20260506144618 | 70 | 211 | 3.0 | 5.0 | 0.00 | 0.00 | 0.00 | 66 | 1010.0 |
| 20260506144530 | 70 | 199 | 5.0 | 8.0 | 0.00 | 0.00 | 0.00 | 66 | 1009.8 |
| 20260506144425 | 70 | 203 | 4.0 | 6.0 | 0.00 | 0.00 | 0.00 | 67 | 1010.0 |
| 20260506144320 | 70 | 203 | 5.0 | 8.0 | 0.00 | 0.00 | 0.00 | 66 | 1009.7 |
| 20260506144215 | 70 | 198 | 6.0 | 10.0 | 0.00 | 0.00 | 0.00 | 66 | 1009.8 |
| 20260506144126 | 70 | 215 | 4.0 | 11.0 | 0.00 | 0.00 | 0.00 | 66 | 1009.9 |
| 20260506144041 | 71 | 197 | 6.0 | 12.0 | 0.00 | 0.00 | 0.00 | 66 | 1009.9 |
| 20260506143916 | 71 | 212 | 5.0 | 9.0 | 0.00 | 0.00 | 0.00 | 66 | 1009.8 |
| 20260506143827 | 71 | 202 | 5.0 | 6.0 | 0.00 | 0.00 | 0.00 | 67 | 1009.7 |
| 20260506143722 | 71 | 209 | 5.0 | 6.0 | 0.00 | 0.00 | 0.00 | 66 | 1009.8 |
| 20260506143617 | 70 | 212 | 5.0 | 7.0 | 0.00 | 0.00 | 0.00 | 66 | 1010.0 |
| 20260506143550 | 70 | 220 | 3.0 | 5.0 | 0.00 | 0.00 | 0.00 | 66 | 1010.0 |
| 20260506143423 | 70 | 198 | 6.0 | 11.0 | 0.00 | 0.00 | 0.00 | 66 | 1010.1 |
| 20260506143319 | 70 | 204 | 4.0 | 14.0 | 0.00 | 0.00 | 0.00 | 67 | 1010.0 |
| 20260506143230 | 70 | 188 | 5.0 | 7.0 | 0.00 | 0.00 | 0.00 | 67 | 1009.9 |
| 20260506143125 | 70 | 210 | 3.0 | 6.0 | 0.00 | 0.00 | 0.00 | 67 | 1010.1 |
| 20260506143020 | 70 | 205 | 3.0 | 5.0 | 0.00 | 0.00 | 0.00 | 67 | 1010.1 |
| 20260506142935 | 70 | 204 | 2.0 | 5.0 | 0.00 | 0.00 | 0.00 | 67 | 1010.0 |
| 20260506142827 | 70 | 233 | 4.0 | 7.0 | 0.00 | 0.00 | 0.00 | 66 | 1009.8 |
| 20260506142722 | 70 | 235 | 3.0 | 8.0 | 0.00 | 0.00 | 0.00 | 67 | 1009.9 |
| 20260506142617 | 70 | 204 | 6.0 | 11.0 | 0.00 | 0.00 | 0.00 | 67 | 1009.8 |
| 20260506142528 | 70 | 187 | 4.0 | 7.0 | 0.00 | 0.00 | 0.00 | 67 | 1009.9 |
| 20260506142420 | 70 | 211 | 5.0 | 7.0 | 0.00 | 0.00 | 0.00 | 68 | 1009.6 |
| 20260506142319 | 69 | 223 | 4.0 | 10.0 | 0.00 | 0.00 | 0.00 | 67 | 1009.6 |
| 20260506142230 | 69 | 213 | 5.0 | 10.0 | 0.00 | 0.00 | 0.00 | 68 | 1010.0 |
| 20260506142125 | 69 | 206 | 3.0 | 5.0 | 0.00 | 0.00 | 0.00 | 68 | 1009.7 |
| 20260506142020 | 69 | 199 | 3.0 | 5.0 | 0.00 | 0.00 | 0.00 | 69 | 1009.9 |
| 20260506141931 | 69 | 208 | 3.0 | 8.0 | 0.00 | 0.00 | 0.00 | 68 | 1009.8 |
| 20260506141926 | 69 | 205 | 6.0 | 10.0 | 0.00 | 0.00 | 0.00 | 68 | 1009.7 |
| 20260506141721 | 69 | 192 | 3.0 | 4.0 | 0.00 | 0.00 | 0.00 | 68 | 1009.8 |
| 20260506141615 | 69 | 220 | 3.0 | 9.0 | 0.00 | 0.00 | 0.00 | 68 | 1009.9 |
| 20260506141527 | 69 | 219 | 5.0 | 12.0 | 0.00 | 0.00 | 0.00 | 68 | 1009.9 |
| 20260506141422 | 69 | 208 | 3.0 | 5.0 | 0.00 | 0.00 | 0.00 | 68 | 1010.0 |
| 20260506141316 | 69 | 215 | 4.0 | 7.0 | 0.00 | 0.00 | 0.00 | 68 | 1009.9 |
| 20260506141247 | 69 | 207 | 5.0 | 8.0 | 0.00 | 0.00 | 0.00 | 68 | 1010.0 |
| 20260506141122 | 69 | 200 | 5.0 | 9.0 | 0.00 | 0.00 | 0.00 | 69 | 1010.0 |
| 20260506141017 | 69 | 209 | 5.0 | 6.0 | 0.00 | 0.00 | 0.00 | 69 | 1009.9 |
| 20260506140948 | 69 | 212 | 4.0 | 9.0 | 0.00 | 0.00 | 0.00 | 68 | 1010.0 |
| 20260506140823 | 69 | 233 | 3.0 | 5.0 | 0.00 | 0.00 | 0.00 | 69 | 1009.9 |
| 20260506140718 | 69 | 210 | 5.0 | 7.0 | 0.00 | 0.00 | 0.00 | 68 | 1009.8 |
| 20260506140630 | 69 | 233 | 3.0 | 7.0 | 0.00 | 0.00 | 0.00 | 69 | 1009.9 |
| 20260506140525 | 69 | 197 | 4.0 | 7.0 | 0.00 | 0.00 | 0.00 | 69 | 1009.7 |
| 20260506140420 | 69 | 244 | 3.0 | 5.0 | 0.00 | 0.00 | 0.00 | 69 | 1009.9 |
| 20260506140315 | 69 | 197 | 4.0 | 7.0 | 0.00 | 0.00 | 0.00 | 69 | 1009.9 |
| 20260506140227 | 69 | 203 | 3.0 | 6.0 | 0.00 | 0.00 | 0.00 | 70 | 1010.0 |
| 20260506140142 | 69 | 207 | 6.0 | 7.0 | 0.00 | 0.00 | 0.00 | 68 | 1010.1 |
| 20260506140017 | 69 | 195 | 4.0 | 6.0 | 0.00 | 0.00 | 0.00 | 69 | 1009.9 |
| 20260506135928 | 69 | 195 | 4.0 | 8.0 | 0.00 | 0.00 | 0.00 | 69 | 1009.8 |
| 20260506135843 | 69 | 207 | 4.0 | 6.0 | 0.00 | 0.00 | 0.00 | 69 | 1010.0 |
| 20260506135738 | 69 | 197 | 5.0 | 7.0 | 0.00 | 0.00 | 0.00 | 69 | 1009.8 |
| 20260506135648 | 69 | 213 | 4.0 | 7.0 | 0.00 | 0.00 | 0.00 | 68 | 1009.8 |
| 20260506135524 | 69 | 208 | 6.0 | 10.0 | 0.00 | 0.00 | 0.00 | 68 | 1010.0 |
| 20260506135419 | 69 | 226 | 4.0 | 7.0 | 0.00 | 0.00 | 0.00 | 69 | 1009.9 |
| 20260506135350 | 69 | 194 | 4.0 | 6.0 | 0.00 | 0.00 | 0.00 | 69 | 1009.8 |
| 20260506135226 | 69 | 206 | 3.0 | 5.0 | 0.00 | 0.00 | 0.00 | 69 | 1009.8 |
| 20260506135141 | 69 | 206 | 4.0 | 7.0 | 0.00 | 0.00 | 0.00 | 69 | 1009.8 |
| 20260506135016 | 69 | 192 | 4.0 | 7.0 | 0.00 | 0.00 | 0.00 | 69 | 1009.9 |
| 20260506134927 | 69 | 209 | 5.0 | 6.0 | 0.00 | 0.00 | 0.00 | 69 | 1009.9 |
| 20260506134822 | 69 | 222 | 5.0 | 7.0 | 0.00 | 0.00 | 0.00 | 68 | 1009.9 |
| 20260506134717 | 69 | 202 | 4.0 | 6.0 | 0.00 | 0.00 | 0.00 | 68 | 1010.0 |
| 20260506134628 | 69 | 254 | 3.0 | 5.0 | 0.00 | 0.00 | 0.00 | 69 | 1009.9 |
| 20260506134546 | 69 | 216 | 3.0 | 4.0 | 0.00 | 0.00 | 0.00 | 69 | 1010.0 |
| 20260506134416 | 69 | 216 | 1.0 | 3.0 | 0.00 | 0.00 | 0.00 | 70 | 1010.2 |
| 20260506134327 | 69 | 202 | 1.0 | 4.0 | 0.00 | 0.00 | 0.00 | 70 | 1009.9 |
| 20260506134222 | 69 | 199 | 4.0 | 6.0 | 0.00 | 0.00 | 0.00 | 69 | 1010.0 |
| 20260506134137 | 69 | 229 | 3.0 | 5.0 | 0.00 | 0.00 | 0.00 | 68 | 1009.9 |
| 20260506134049 | 69 | 253 | 2.0 | 6.0 | 0.00 | 0.00 | 0.00 | 68 | 1010.1 |
| 20260506133924 | 69 | 250 | 3.0 | 6.0 | 0.00 | 0.00 | 0.00 | 69 | 1010.2 |
| 20260506133838 | 69 | 253 | 3.0 | 9.0 | 0.00 | 0.00 | 0.00 | 69 | 1010.1 |
| 20260506133729 | 69 | 221 | 5.0 | 9.0 | 0.00 | 0.00 | 0.00 | 70 | 1010.1 |
| 20260506133624 | 69 | 189 | 4.0 | 7.0 | 0.00 | 0.00 | 0.00 | 70 | 1010.1 |
| 20260506133551 | 69 | 229 | 5.0 | 8.0 | 0.00 | 0.00 | 0.00 | 69 | 1010.0 |
| 20260506133430 | 69 | 210 | 6.0 | 10.0 | 0.00 | 0.00 | 0.00 | 69 | 1010.0 |
| 20260506133325 | 69 | 204 | 5.0 | 10.0 | 0.00 | 0.00 | 0.00 | 70 | 1010.2 |
| 20260506133221 | 69 | 202 | 7.0 | 9.0 | 0.00 | 0.00 | 0.00 | 70 | 1010.2 |
| 20260506133116 | 69 | 211 | 3.0 | 6.0 | 0.00 | 0.00 | 0.00 | 70 | 1010.1 |
| 20260506133048 | 69 | 195 | 5.0 | 9.0 | 0.00 | 0.00 | 0.00 | 70 | 1010.1 |
| 20260506132923 | 69 | 202 | 3.0 | 7.0 | 0.00 | 0.00 | 0.00 | 69 | 1010.2 |
| 20260506132817 | 69 | 293 | 2.0 | 5.0 | 0.00 | 0.00 | 0.00 | 69 | 1010.1 |
| 20260506132729 | 69 | 223 | 6.0 | 10.0 | 0.00 | 0.00 | 0.00 | 69 | 1010.2 |
| 20260506132624 | 69 | 256 | 2.0 | 5.0 | 0.00 | 0.00 | 0.00 | 69 | 1010.0 |
| 20260506132519 | 69 | 284 | 2.0 | 4.0 | 0.00 | 0.00 | 0.00 | 70 | 1010.1 |
| 20260506132430 | 68 | 203 | 5.0 | 8.0 | 0.00 | 0.00 | 0.00 | 69 | 1010.1 |
| 20260506132326 | 68 | 211 | 4.0 | 8.0 | 0.00 | 0.00 | 0.00 | 69 | 1010.1 |
| 20260506132241 | 69 | 190 | 5.0 | 7.0 | 0.00 | 0.00 | 0.00 | 69 | 1010.1 |
| 20260506132137 | 68 | 197 | 4.0 | 10.0 | 0.00 | 0.00 | 0.00 | 70 | 1010.0 |
| 20260506132048 | 68 | 231 | 5.0 | 9.0 | 0.00 | 0.00 | 0.00 | 70 | 1009.9 |
| 20260506131924 | 68 | 195 | 6.0 | 11.0 | 0.00 | 0.00 | 0.00 | 69 | 1010.1 |
| 20260506131819 | 69 | 194 | 4.0 | 7.0 | 0.00 | 0.00 | 0.00 | 70 | 1010.0 |
| 20260506131731 | 68 | 210 | 5.0 | 7.0 | 0.00 | 0.00 | 0.00 | 70 | 1010.1 |
| 20260506131626 | 68 | 197 | 5.0 | 6.0 | 0.00 | 0.00 | 0.00 | 70 | 1010.2 |
| 20260506131542 | 68 | 209 | 5.0 | 9.0 | 0.00 | 0.00 | 0.00 | 70 | 1010.0 |
| 20260506131418 | 68 | 185 | 5.0 | 11.0 | 0.00 | 0.00 | 0.00 | 69 | 1010.2 |
| 20260506131329 | 68 | 250 | 1.0 | 3.0 | 0.00 | 0.00 | 0.00 | 70 | 1010.0 |
| 20260506131244 | 68 | 245 | 3.0 | 5.0 | 0.00 | 0.00 | 0.00 | 69 | 1010.0 |
| 20260506131119 | 68 | 221 | 5.0 | 7.0 | 0.00 | 0.00 | 0.00 | 70 | 1010.1 |
| 20260506131031 | 68 | 210 | 5.0 | 7.0 | 0.00 | 0.00 | 0.00 | 70 | 1010.1 |
| 20260506130926 | 68 | 194 | 3.0 | 10.0 | 0.00 | 0.00 | 0.00 | 70 | 1010.0 |
| 20260506130841 | 68 | 197 | 5.0 | 6.0 | 0.00 | 0.00 | 0.00 | 70 | 1010.0 |
| 20260506130716 | 68 | 220 | 6.0 | 9.0 | 0.00 | 0.00 | 0.00 | 70 | 1010.1 |
| 20260506130628 | 68 | 205 | 5.0 | 6.0 | 0.00 | 0.00 | 0.00 | 70 | 1010.2 |
| 20260506130522 | 68 | 267 | 2.0 | 6.0 | 0.00 | 0.00 | 0.00 | 70 | 1010.0 |
| 20260506130417 | 68 | 251 | 4.0 | 6.0 | 0.00 | 0.00 | 0.00 | 69 | 1010.1 |
| 20260506130329 | 68 | 206 | 6.0 | 11.0 | 0.00 | 0.00 | 0.00 | 70 | 1009.9 |
| 20260506130224 | 68 | 200 | 6.0 | 11.0 | 0.00 | 0.00 | 0.00 | 70 | 1009.9 |
| 20260506130120 | 68 | 218 | 4.0 | 6.0 | 0.00 | 0.00 | 0.00 | 70 | 1010.0 |
| 20260506130031 | 68 | 197 | 5.0 | 9.0 | 0.00 | 0.00 | 0.00 | 70 | 1009.9 |
| 20260506125926 | 68 | 209 | 4.0 | 7.0 | 0.00 | 0.00 | 0.00 | 70 | 1010.0 |
| 20260506125821 | 68 | 208 | 3.0 | 6.0 | 0.00 | 0.00 | 0.00 | 70 | 1009.9 |
| 20260506125737 | 68 | 207 | 5.0 | 7.0 | 0.00 | 0.00 | 0.00 | 70 | 1009.8 |
| 20260506125628 | 68 | 205 | 4.0 | 6.0 | 0.00 | 0.00 | 0.00 | 71 | 1010.0 |
| 20260506125523 | 68 | 207 | 3.0 | 8.0 | 0.00 | 0.00 | 0.00 | 71 | 1009.9 |
| 20260506125419 | 68 | 208 | 4.0 | 9.0 | 0.00 | 0.00 | 0.00 | 70 | 1009.8 |
| 20260506125346 | 68 | 209 | 5.0 | 9.0 | 0.00 | 0.00 | 0.00 | 70 | 1009.8 |
| 20260506125121 | 68 | 213 | 5.0 | 7.0 | 0.00 | 0.00 | 0.00 | 70 | 1009.7 |
| 20260506125017 | 68 | 209 | 5.0 | 9.0 | 0.00 | 0.00 | 0.00 | 71 | 1009.9 |
| 20260506124928 | 68 | 206 | 5.0 | 8.0 | 0.00 | 0.00 | 0.00 | 71 | 1009.8 |
| 20260506124824 | 68 | 204 | 5.0 | 9.0 | 0.00 | 0.00 | 0.00 | 71 | 1009.8 |
| 20260506124719 | 68 | 192 | 4.0 | 7.0 | 0.00 | 0.00 | 0.00 | 71 | 1009.8 |
| 20260506124631 | 68 | 199 | 3.0 | 5.0 | 0.00 | 0.00 | 0.00 | 71 | 1009.9 |
| 20260506124527 | 68 | 200 | 4.0 | 7.0 | 0.00 | 0.00 | 0.00 | 70 | 1009.8 |
| 20260506124422 | 68 | 201 | 4.0 | 8.0 | 0.00 | 0.00 | 0.00 | 71 | 1009.9 |
| 20260506124337 | 68 | 204 | 7.0 | 11.0 | 0.00 | 0.00 | 0.00 | 71 | 1009.8 |
| 20260506124249 | 68 | 218 | 5.0 | 9.0 | 0.00 | 0.00 | 0.00 | 71 | 1009.8 |
| 20260506124123 | 68 | 195 | 6.0 | 11.0 | 0.00 | 0.00 | 0.00 | 70 | 1009.9 |
| 20260506124018 | 68 | 218 | 4.0 | 9.0 | 0.00 | 0.00 | 0.00 | 71 | 1009.9 |
| 20260506123949 | 68 | 199 | 4.0 | 7.0 | 0.00 | 0.00 | 0.00 | 71 | 1009.7 |
| 20260506123823 | 68 | 208 | 5.0 | 9.0 | 0.00 | 0.00 | 0.00 | 71 | 1009.9 |
| 20260506123738 | 68 | 199 | 3.0 | 4.0 | 0.00 | 0.00 | 0.00 | 71 | 1009.9 |
| 20260506123630 | 68 | 204 | 3.0 | 7.0 | 0.00 | 0.00 | 0.00 | 71 | 1010.0 |
| 20260506123526 | 68 | 222 | 6.0 | 10.0 | 0.00 | 0.00 | 0.00 | 72 | 1009.7 |
| 20260506123441 | 68 | 194 | 3.0 | 6.0 | 0.00 | 0.00 | 0.00 | 72 | 1009.9 |
| 20260506123317 | 68 | 196 | 5.0 | 7.0 | 0.00 | 0.00 | 0.00 | 71 | 1009.8 |
| 20260506123229 | 68 | 209 | 5.0 | 8.0 | 0.00 | 0.00 | 0.00 | 71 | 1010.1 |
| 20260506123144 | 68 | 209 | 3.0 | 7.0 | 0.00 | 0.00 | 0.00 | 72 | 1009.6 |
| 20260506123020 | 68 | 203 | 3.0 | 8.0 | 0.00 | 0.00 | 0.00 | 73 | 1010.1 |
| 20260506122935 | 67 | 199 | 4.0 | 5.0 | 0.00 | 0.00 | 0.00 | 72 | 1009.9 |
| 20260506122846 | 67 | 200 | 3.0 | 6.0 | 0.00 | 0.00 | 0.00 | 72 | 1009.6 |
| 20260506122722 | 67 | 212 | 3.0 | 5.0 | 0.00 | 0.00 | 0.00 | 72 | 1009.8 |
| 20260506122617 | 67 | 208 | 4.0 | 6.0 | 0.00 | 0.00 | 0.00 | 73 | 1010.0 |
| 20260506122529 | 67 | 207 | 2.0 | 3.0 | 0.00 | 0.00 | 0.00 | 73 | 1010.2 |
| 20260506122424 | 67 | 233 | 5.0 | 8.0 | 0.00 | 0.00 | 0.00 | 73 | 1010.2 |
| 20260506122320 | 67 | 203 | 4.0 | 6.0 | 0.00 | 0.00 | 0.00 | 74 | 1009.9 |
| 20260506122236 | 67 | 200 | 5.0 | 6.0 | 0.00 | 0.00 | 0.00 | 74 | 1010.0 |
| 20260506122127 | 66 | 209 | 3.0 | 7.0 | 0.00 | 0.00 | 0.00 | 74 | 1010.0 |
| 20260506122022 | 66 | 198 | 5.0 | 9.0 | 0.00 | 0.00 | 0.00 | 74 | 1009.9 |
| 20260506121918 | 66 | 265 | 2.0 | 3.0 | 0.00 | 0.00 | 0.00 | 75 | 1010.0 |
| 20260506121829 | 66 | 195 | 3.0 | 4.0 | 0.00 | 0.00 | 0.00 | 75 | 1009.9 |
| 20260506121725 | 66 | 201 | 2.0 | 4.0 | 0.00 | 0.00 | 0.00 | 75 | 1010.2 |
| 20260506121620 | 66 | 220 | 0.0 | 2.0 | 0.00 | 0.00 | 0.00 | 75 | 1010.2 |
| 20260506121556 | 66 | 244 | 3.0 | 4.0 | 0.00 | 0.00 | 0.00 | 75 | 1010.2 |
| 20260506121428 | 66 | 235 | 2.0 | 5.0 | 0.00 | 0.00 | 0.00 | 75 | 1010.2 |
| 20260506121323 | 66 | 210 | 2.0 | 5.0 | 0.00 | 0.00 | 0.00 | 75 | 1010.2 |
| 20260506121219 | 66 | 205 | 3.0 | 4.0 | 0.00 | 0.00 | 0.00 | 75 | 1010.1 |
| 20260506121130 | 66 | 217 | 3.0 | 4.0 | 0.00 | 0.00 | 0.00 | 75 | 1010.1 |
| 20260506121025 | 66 | 183 | 3.0 | 4.0 | 0.00 | 0.00 | 0.00 | 75 | 1010.2 |
| 20260506120921 | 66 | 225 | 2.0 | 3.0 | 0.00 | 0.00 | 0.00 | 75 | 1010.1 |
| 20260506120817 | 66 | 203 | 3.0 | 5.0 | 0.00 | 0.00 | 0.00 | 75 | 1010.0 |
| 20260506120728 | 66 | 184 | 3.0 | 4.0 | 0.00 | 0.00 | 0.00 | 75 | 1010.1 |
| 20260506120624 | 66 | 234 | 2.0 | 3.0 | 0.00 | 0.00 | 0.00 | 75 | 1010.2 |
| 20260506120519 | 66 | 200 | 4.0 | 6.0 | 0.00 | 0.00 | 0.00 | 75 | 1010.0 |
| 20260506120431 | 66 | 205 | 3.0 | 6.0 | 0.00 | 0.00 | 0.00 | 75 | 1009.9 |
| 20260506120326 | 66 | 193 | 4.0 | 4.0 | 0.00 | 0.00 | 0.00 | 75 | 1010.2 |
| 20260506120222 | 66 | 205 | 3.0 | 5.0 | 0.00 | 0.00 | 0.00 | 75 | 1010.2 |
| 20260506120138 | 66 | 205 | 5.0 | 6.0 | 0.00 | 0.00 | 0.00 | 75 | 1010.2 |
| 20260506120029 | 66 | 197 | 4.0 | 6.0 | 0.00 | 0.00 | 0.00 | 75 | 1010.1 |
| 20260506115925 | 66 | 209 | 4.0 | 6.0 | 0.00 | 0.00 | 0.00 | 75 | 1010.1 |
| 20260506115820 | 66 | 188 | 4.0 | 7.0 | 0.00 | 0.00 | 0.00 | 75 | 1010.2 |
| 20260506115716 | 66 | 204 | 3.0 | 5.0 | 0.00 | 0.00 | 0.00 | 75 | 1010.4 |
| 20260506115640 | 66 | 213 | 3.0 | 4.0 | 0.00 | 0.00 | 0.00 | 75 | 1010.3 |
| 20260506115523 | 66 | 235 | 2.0 | 3.0 | 0.00 | 0.00 | 0.00 | 75 | 1010.4 |
| 20260506115418 | 66 | 165 | 2.0 | 6.0 | 0.00 | 0.00 | 0.00 | 75 | 1010.4 |
| 20260506115330 | 66 | 229 | 4.0 | 8.0 | 0.00 | 0.00 | 0.00 | 75 | 1010.5 |
| 20260506115225 | 66 | 207 | 3.0 | 5.0 | 0.00 | 0.00 | 0.00 | 75 | 1010.3 |
| 20260506115121 | 66 | 211 | 6.0 | 10.0 | 0.00 | 0.00 | 0.00 | 75 | 1010.3 |
| 20260506115017 | 66 | 202 | 5.0 | 10.0 | 0.00 | 0.00 | 0.00 | 75 | 1010.4 |
| 20260506114928 | 66 | 199 | 6.0 | 8.0 | 0.00 | 0.00 | 0.00 | 75 | 1010.3 |
| 20260506114824 | 66 | 198 | 6.0 | 8.0 | 0.00 | 0.00 | 0.00 | 75 | 1010.4 |
| 20260506114739 | 66 | 208 | 4.0 | 6.0 | 0.00 | 0.00 | 0.00 | 75 | 1010.3 |
| 20260506114615 | 66 | 204 | 4.0 | 8.0 | 0.00 | 0.00 | 0.00 | 75 | 1010.3 |
| 20260506114527 | 66 | 193 | 5.0 | 10.0 | 0.00 | 0.00 | 0.00 | 75 | 1010.2 |
| 20260506114502 | 66 | 204 | 6.0 | 11.0 | 0.00 | 0.00 | 0.00 | 74 | 1010.2 |
| 20260506114317 | 66 | 207 | 8.0 | 14.0 | 0.00 | 0.00 | 0.00 | 75 | 1010.3 |
| 20260506114229 | 66 | 226 | 3.0 | 7.0 | 0.00 | 0.00 | 0.00 | 75 | 1010.2 |
| 20260506114125 | 66 | 209 | 5.0 | 10.0 | 0.00 | 0.00 | 0.00 | 75 | 1010.4 |
| 20260506114020 | 66 | 206 | 7.0 | 11.0 | 0.00 | 0.00 | 0.00 | 75 | 1010.2 |
| 20260506113916 | 66 | 208 | 7.0 | 11.0 | 0.00 | 0.00 | 0.00 | 76 | 1010.2 |
| 20260506113827 | 66 | 206 | 2.0 | 6.0 | 0.00 | 0.00 | 0.00 | 76 | 1010.1 |
| 20260506113723 | 66 | 198 | 4.0 | 9.0 | 0.00 | 0.00 | 0.00 | 76 | 1010.2 |
| 20260506113619 | 66 | 203 | 4.0 | 10.0 | 0.00 | 0.00 | 0.00 | 76 | 1010.3 |
| 20260506113530 | 66 | 200 | 3.0 | 5.0 | 0.00 | 0.00 | 0.00 | 76 | 1010.2 |
| 20260506113426 | 66 | 231 | 3.0 | 4.0 | 0.00 | 0.00 | 0.00 | 76 | 1010.2 |
| 20260506113322 | 65 | 210 | 3.0 | 5.0 | 0.00 | 0.00 | 0.00 | 77 | 1010.3 |
| 20260506113217 | 65 | 210 | 4.0 | 6.0 | 0.00 | 0.00 | 0.00 | 77 | 1010.5 |
| 20260506113149 | 65 | 215 | 4.0 | 6.0 | 0.00 | 0.00 | 0.00 | 77 | 1010.5 |
| 20260506113044 | 65 | 206 | 7.0 | 11.0 | 0.00 | 0.00 | 0.00 | 77 | 1010.3 |
| 20260506112920 | 65 | 215 | 6.0 | 10.0 | 0.00 | 0.00 | 0.00 | 77 | 1010.2 |
| 20260506112816 | 65 | 205 | 7.0 | 11.0 | 0.00 | 0.00 | 0.00 | 77 | 1010.3 |
| 20260506112727 | 65 | 200 | 5.0 | 9.0 | 0.00 | 0.00 | 0.00 | 77 | 1010.2 |
| 20260506112623 | 65 | 202 | 4.0 | 6.0 | 0.00 | 0.00 | 0.00 | 77 | 1010.3 |
| 20260506112518 | 65 | 202 | 7.0 | 12.0 | 0.00 | 0.00 | 0.00 | 77 | 1010.2 |
| 20260506112430 | 65 | 203 | 3.0 | 5.0 | 0.00 | 0.00 | 0.00 | 77 | 1010.4 |
| 20260506112326 | 65 | 235 | 5.0 | 9.0 | 0.00 | 0.00 | 0.00 | 77 | 1010.5 |
| 20260506112221 | 65 | 271 | 4.0 | 8.0 | 0.00 | 0.00 | 0.00 | 77 | 1010.4 |
| 20260506112117 | 65 | 196 | 3.0 | 5.0 | 0.00 | 0.00 | 0.00 | 78 | 1010.6 |
| 20260506112029 | 65 | 209 | 4.0 | 7.0 | 0.00 | 0.00 | 0.00 | 78 | 1010.4 |
| 20260506111924 | 65 | 198 | 3.0 | 5.0 | 0.00 | 0.00 | 0.00 | 78 | 1010.5 |
| 20260506111820 | 65 | 208 | 5.0 | 7.0 | 0.00 | 0.00 | 0.00 | 78 | 1010.5 |
| 20260506111731 | 65 | 199 | 5.0 | 8.0 | 0.00 | 0.00 | 0.00 | 78 | 1010.4 |
| 20260506111627 | 65 | 192 | 4.0 | 6.0 | 0.00 | 0.00 | 0.00 | 78 | 1010.2 |
| 20260506111522 | 65 | 201 | 3.0 | 6.0 | 0.00 | 0.00 | 0.00 | 78 | 1010.4 |
| 20260506111437 | 65 | 203 | 4.0 | 7.0 | 0.00 | 0.00 | 0.00 | 78 | 1010.4 |
| 20260506111329 | 65 | 203 | 5.0 | 8.0 | 0.00 | 0.00 | 0.00 | 78 | 1010.5 |
| 20260506111225 | 65 | 206 | 6.0 | 10.0 | 0.00 | 0.00 | 0.00 | 78 | 1010.5 |
| 20260506111121 | 65 | 203 | 3.0 | 5.0 | 0.00 | 0.00 | 0.00 | 78 | 1010.3 |
| 20260506111016 | 65 | 193 | 3.0 | 4.0 | 0.00 | 0.00 | 0.00 | 78 | 1010.4 |
| 20260506110928 | 65 | 202 | 1.0 | 3.0 | 0.00 | 0.00 | 0.00 | 78 | 1010.3 |
| 20260506110823 | 65 | 240 | 3.0 | 5.0 | 0.00 | 0.00 | 0.00 | 78 | 1010.5 |
| 20260506110719 | 65 | 201 | 4.0 | 8.0 | 0.00 | 0.00 | 0.00 | 78 | 1010.2 |
| 20260506110630 | 65 | 209 | 4.0 | 7.0 | 0.00 | 0.00 | 0.00 | 79 | 1010.4 |
| 20260506110526 | 64 | 184 | 3.0 | 5.0 | 0.00 | 0.00 | 0.00 | 78 | 1010.2 |
| 20260506110421 | 64 | 196 | 3.0 | 4.0 | 0.00 | 0.00 | 0.00 | 79 | 1010.1 |
| 20260506110317 | 64 | 196 | 3.0 | 4.0 | 0.00 | 0.00 | 0.00 | 79 | 1010.3 |
| 20260506110249 | 64 | 195 | 6.0 | 11.0 | 0.00 | 0.00 | 0.00 | 78 | 1010.2 |
| 20260506110144 | 64 | 196 | 4.0 | 10.0 | 0.00 | 0.00 | 0.00 | 79 | 1010.2 |
| 20260506110040 | 64 | 212 | 6.0 | 9.0 | 0.00 | 0.00 | 0.00 | 79 | 1010.4 |
| 20260506105915 | 64 | 205 | 4.0 | 5.0 | 0.00 | 0.00 | 0.00 | 79 | 1010.3 |
| 20260506105827 | 64 | 202 | 6.0 | 12.0 | 0.00 | 0.00 | 0.00 | 79 | 1010.4 |
| 20260506105743 | 64 | 199 | 4.0 | 6.0 | 0.00 | 0.00 | 0.00 | 80 | 1010.3 |
| 20260506105618 | 64 | 212 | 4.0 | 6.0 | 0.00 | 0.00 | 0.00 | 80 | 1010.3 |
| 20260506105530 | 64 | 211 | 3.0 | 4.0 | 0.00 | 0.00 | 0.00 | 80 | 1010.2 |
| 20260506105425 | 64 | 187 | 3.0 | 4.0 | 0.00 | 0.00 | 0.00 | 80 | 1010.2 |
| 20260506105321 | 64 | 196 | 3.0 | 4.0 | 0.00 | 0.00 | 0.00 | 80 | 1010.2 |
| 20260506105216 | 64 | 202 | 3.0 | 4.0 | 0.00 | 0.00 | 0.00 | 80 | 1010.2 |
| 20260506105128 | 64 | 211 | 3.0 | 5.0 | 0.00 | 0.00 | 0.00 | 80 | 1010.1 |
| 20260506105024 | 64 | 213 | 4.0 | 6.0 | 0.00 | 0.00 | 0.00 | 80 | 1010.0 |
| 20260506104919 | 64 | 180 | 3.0 | 11.0 | 0.00 | 0.00 | 0.00 | 80 | 1010.1 |
| 20260506104831 | 64 | 211 | 3.0 | 4.0 | 0.00 | 0.00 | 0.00 | 80 | 1010.1 |
| 20260506104726 | 64 | 201 | 4.0 | 6.0 | 0.00 | 0.00 | 0.00 | 80 | 1010.1 |
| 20260506104622 | 64 | 198 | 3.0 | 5.0 | 0.00 | 0.00 | 0.00 | 80 | 1010.2 |
| 20260506104537 | 64 | 202 | 3.0 | 3.0 | 0.00 | 0.00 | 0.00 | 80 | 1010.1 |
| 20260506104429 | 64 | 202 | 2.0 | 3.0 | 0.00 | 0.00 | 0.00 | 80 | 1010.2 |
| 20260506104325 | 64 | 205 | 4.0 | 6.0 | 0.00 | 0.00 | 0.00 | 80 | 1010.0 |
| 20260506104221 | 64 | 203 | 3.0 | 4.0 | 0.00 | 0.00 | 0.00 | 80 | 1010.0 |
| 20260506104156 | 64 | 161 | 1.0 | 2.0 | 0.00 | 0.00 | 0.00 | 80 | 1010.1 |
| 20260506104028 | 64 | 197 | 2.0 | 5.0 | 0.00 | 0.00 | 0.00 | 80 | 1010.1 |
| 20260506103923 | 64 | 201 | 4.0 | 5.0 | 0.00 | 0.00 | 0.00 | 80 | 1010.0 |
| 20260506103819 | 64 | 199 | 3.0 | 5.0 | 0.00 | 0.00 | 0.00 | 80 | 1010.2 |
| 20260506103731 | 64 | 201 | 3.0 | 4.0 | 0.00 | 0.00 | 0.00 | 80 | 1010.1 |
| 20260506103626 | 64 | 205 | 4.0 | 7.0 | 0.00 | 0.00 | 0.00 | 80 | 1010.1 |
| 20260506103522 | 64 | 206 | 3.0 | 5.0 | 0.00 | 0.00 | 0.00 | 80 | 1010.2 |
| 20260506103418 | 64 | 196 | 3.0 | 4.0 | 0.00 | 0.00 | 0.00 | 80 | 1010.2 |
| 20260506103329 | 64 | 219 | 3.0 | 5.0 | 0.00 | 0.00 | 0.00 | 80 | 1010.1 |
| 20260506103225 | 64 | 214 | 3.0 | 6.0 | 0.00 | 0.00 | 0.00 | 80 | 1010.2 |
| 20260506103120 | 64 | 204 | 5.0 | 6.0 | 0.00 | 0.00 | 0.00 | 80 | 1010.2 |
| 20260506103036 | 64 | 197 | 4.0 | 5.0 | 0.00 | 0.00 | 0.00 | 80 | 1010.1 |
| 20260506102928 | 64 | 197 | 4.0 | 6.0 | 0.00 | 0.00 | 0.00 | 80 | 1010.2 |
| 20260506102843 | 64 | 198 | 3.0 | 4.0 | 0.00 | 0.00 | 0.00 | 80 | 1010.4 |
| 20260506102719 | 64 | 181 | 2.0 | 3.0 | 0.00 | 0.00 | 0.00 | 80 | 1010.1 |
| 20260506102631 | 64 | 159 | 1.0 | 3.0 | 0.00 | 0.00 | 0.00 | 80 | 1010.1 |
| 20260506102526 | 64 | 194 | 2.0 | 3.0 | 0.00 | 0.00 | 0.00 | 80 | 1010.2 |
| 20260506102422 | 64 | 206 | 3.0 | 4.0 | 0.00 | 0.00 | 0.00 | 80 | 1010.3 |
| 20260506102317 | 64 | 214 | 4.0 | 9.0 | 0.00 | 0.00 | 0.00 | 80 | 1010.3 |
| 20260506102229 | 64 | 207 | 5.0 | 9.0 | 0.00 | 0.00 | 0.00 | 80 | 1010.0 |
| 20260506102125 | 64 | 213 | 2.0 | 6.0 | 0.00 | 0.00 | 0.00 | 80 | 1010.3 |
| 20260506102020 | 64 | 204 | 3.0 | 5.0 | 0.00 | 0.00 | 0.00 | 80 | 1010.0 |
| 20260506101916 | 64 | 237 | 2.0 | 3.0 | 0.00 | 0.00 | 0.00 | 80 | 1010.1 |
| 20260506101848 | 64 | 197 | 3.0 | 5.0 | 0.00 | 0.00 | 0.00 | 80 | 1010.2 |
| 20260506101723 | 64 | 200 | 5.0 | 6.0 | 0.00 | 0.00 | 0.00 | 80 | 1010.0 |
| 20260506101619 | 64 | 202 | 4.0 | 5.0 | 0.00 | 0.00 | 0.00 | 80 | 1010.2 |
| 20260506101531 | 64 | 198 | 3.0 | 4.0 | 0.00 | 0.00 | 0.00 | 80 | 1010.1 |
| 20260506101426 | 64 | 196 | 5.0 | 9.0 | 0.00 | 0.00 | 0.00 | 80 | 1010.1 |
| 20260506101321 | 64 | 208 | 5.0 | 8.0 | 0.00 | 0.00 | 0.00 | 80 | 1010.1 |
| 20260506101309 | 63 | 204 | 5.0 | 6.0 | 0.00 | 0.00 | 0.00 | 81 | 1010.0 |
| 20260506101025 | 64 | 194 | 3.0 | 4.0 | 0.00 | 0.00 | 0.00 | 81 | 1010.1 |
| 20260506100920 | 64 | 190 | 3.0 | 4.0 | 0.00 | 0.00 | 0.00 | 81 | 1010.0 |
| 20260506100836 | 64 | 194 | 3.0 | 6.0 | 0.00 | 0.00 | 0.00 | 80 | 1010.0 |
| 20260506100727 | 64 | 206 | 4.0 | 6.0 | 0.00 | 0.00 | 0.00 | 80 | 1009.8 |
| 20260506100623 | 64 | 201 | 2.0 | 4.0 | 0.00 | 0.00 | 0.00 | 80 | 1009.8 |
| 20260506100519 | 64 | 240 | 3.0 | 5.0 | 0.00 | 0.00 | 0.00 | 80 | 1010.0 |
| 20260506100430 | 64 | 205 | 4.0 | 5.0 | 0.00 | 0.00 | 0.00 | 81 | 1009.9 |
| 20260506100326 | 64 | 206 | 3.0 | 4.0 | 0.00 | 0.00 | 0.00 | 81 | 1009.9 |
| 20260506100221 | 64 | 189 | 1.0 | 3.0 | 0.00 | 0.00 | 0.00 | 81 | 1010.0 |
| 20260506100117 | 64 | 200 | 3.0 | 6.0 | 0.00 | 0.00 | 0.00 | 81 | 1009.9 |
| 20260506100029 | 64 | 201 | 3.0 | 5.0 | 0.00 | 0.00 | 0.00 | 81 | 1009.9 |
| 20260506095924 | 64 | 200 | 2.0 | 4.0 | 0.00 | 0.00 | 0.00 | 81 | 1009.7 |
| 20260506095840 | 64 | 199 | 3.0 | 5.0 | 0.00 | 0.00 | 0.00 | 81 | 1009.8 |
| 20260506095715 | 64 | 196 | 3.0 | 5.0 | 0.00 | 0.00 | 0.00 | 81 | 1009.9 |
| 20260506095627 | 64 | 190 | 3.0 | 4.0 | 0.00 | 0.00 | 0.00 | 81 | 1009.7 |
| 20260506095523 | 64 | 198 | 4.0 | 5.0 | 0.00 | 0.00 | 0.00 | 81 | 1009.8 |
| 20260506095418 | 64 | 190 | 3.0 | 5.0 | 0.00 | 0.00 | 0.00 | 81 | 1010.0 |
| 20260506095330 | 64 | 203 | 3.0 | 4.0 | 0.00 | 0.00 | 0.00 | 80 | 1009.9 |
| 20260506095225 | 64 | 209 | 2.0 | 4.0 | 0.00 | 0.00 | 0.00 | 80 | 1010.0 |
| 20260506095121 | 64 | 209 | 4.0 | 6.0 | 0.00 | 0.00 | 0.00 | 80 | 1009.8 |
| 20260506095017 | 64 | 201 | 4.0 | 5.0 | 0.00 | 0.00 | 0.00 | 80 | 1009.9 |
| 20260506094948 | 64 | 203 | 4.0 | 6.0 | 0.00 | 0.00 | 0.00 | 80 | 1009.7 |
| 20260506094844 | 64 | 194 | 3.0 | 5.0 | 0.00 | 0.00 | 0.00 | 80 | 1010.0 |
| 20260506094720 | 64 | 201 | 4.0 | 6.0 | 0.00 | 0.00 | 0.00 | 80 | 1010.0 |
| 20260506094615 | 64 | 194 | 3.0 | 5.0 | 0.00 | 0.00 | 0.00 | 80 | 1010.0 |
| 20260506094527 | 64 | 199 | 6.0 | 8.0 | 0.00 | 0.00 | 0.00 | 80 | 1009.9 |
| 20260506094422 | 64 | 187 | 3.0 | 4.0 | 0.00 | 0.00 | 0.00 | 80 | 1010.0 |
| 20260506094318 | 64 | 190 | 3.0 | 4.0 | 0.00 | 0.00 | 0.00 | 80 | 1010.0 |
| 20260506094230 | 64 | 204 | 4.0 | 7.0 | 0.00 | 0.00 | 0.00 | 80 | 1010.0 |
| 20260506094125 | 64 | 200 | 5.0 | 8.0 | 0.00 | 0.00 | 0.00 | 80 | 1009.9 |
| 20260506094041 | 64 | 195 | 4.0 | 7.0 | 0.00 | 0.00 | 0.00 | 80 | 1009.9 |
| 20260506093916 | 64 | 201 | 5.0 | 8.0 | 0.00 | 0.00 | 0.00 | 80 | 1009.8 |
| 20260506093828 | 64 | 213 | 5.0 | 7.0 | 0.00 | 0.00 | 0.00 | 80 | 1009.7 |
| 20260506093744 | 64 | 208 | 4.0 | 7.0 | 0.00 | 0.00 | 0.00 | 80 | 1009.5 |
| 20260506093639 | 64 | 225 | 3.0 | 6.0 | 0.00 | 0.00 | 0.00 | 80 | 1009.8 |
| 20260506093531 | 64 | 217 | 2.0 | 4.0 | 0.00 | 0.00 | 0.00 | 80 | 1009.7 |
| 20260506093427 | 64 | 210 | 2.0 | 4.0 | 0.00 | 0.00 | 0.00 | 80 | 1009.9 |
| 20260506093322 | 64 | 200 | 4.0 | 8.0 | 0.00 | 0.00 | 0.00 | 81 | 1009.7 |
| 20260506093218 | 64 | 192 | 4.0 | 8.0 | 0.00 | 0.00 | 0.00 | 81 | 1009.9 |
| 20260506093129 | 64 | 217 | 2.0 | 5.0 | 0.00 | 0.00 | 0.00 | 81 | 1009.9 |
| 20260506093025 | 64 | 214 | 5.0 | 6.0 | 0.00 | 0.00 | 0.00 | 81 | 1009.9 |
| 20260506092920 | 63 | 210 | 4.0 | 6.0 | 0.00 | 0.00 | 0.00 | 81 | 1009.9 |
| 20260506092816 | 63 | 213 | 5.0 | 7.0 | 0.00 | 0.00 | 0.00 | 81 | 1010.0 |
| 20260506092728 | 63 | 214 | 3.0 | 5.0 | 0.00 | 0.00 | 0.00 | 81 | 1009.9 |
| 20260506092643 | 63 | 209 | 3.0 | 4.0 | 0.00 | 0.00 | 0.00 | 81 | 1009.9 |
| 20260506092519 | 63 | 206 | 3.0 | 4.0 | 0.00 | 0.00 | 0.00 | 81 | 1009.8 |
| 20260506092431 | 63 | 188 | 3.0 | 4.0 | 0.00 | 0.00 | 0.00 | 81 | 1009.8 |
| 20260506092326 | 63 | 200 | 2.0 | 4.0 | 0.00 | 0.00 | 0.00 | 81 | 1009.8 |
| 20260506092222 | 63 | 211 | 3.0 | 4.0 | 0.00 | 0.00 | 0.00 | 81 | 1010.0 |
| 20260506092138 | 63 | 217 | 3.0 | 5.0 | 0.00 | 0.00 | 0.00 | 81 | 1009.7 |
| 20260506092029 | 63 | 201 | 5.0 | 8.0 | 0.00 | 0.00 | 0.00 | 81 | 1009.8 |
| 20260506091925 | 63 | 154 | 3.0 | 4.0 | 0.00 | 0.00 | 0.00 | 81 | 1009.8 |
| 20260506091821 | 63 | 191 | 3.0 | 5.0 | 0.00 | 0.00 | 0.00 | 81 | 1010.0 |
| 20260506091716 | 63 | 207 | 3.0 | 5.0 | 0.00 | 0.00 | 0.00 | 81 | 1010.0 |
| 20260506091628 | 63 | 206 | 5.0 | 6.0 | 0.00 | 0.00 | 0.00 | 81 | 1009.9 |
| 20260506091523 | 63 | 216 | 2.0 | 4.0 | 0.00 | 0.00 | 0.00 | 81 | 1010.1 |
| 20260506091419 | 63 | 199 | 3.0 | 4.0 | 0.00 | 0.00 | 0.00 | 81 | 1009.9 |
| 20260506091331 | 63 | 195 | 4.0 | 5.0 | 0.00 | 0.00 | 0.00 | 81 | 1010.0 |
| 20260506091226 | 63 | 202 | 4.0 | 5.0 | 0.00 | 0.00 | 0.00 | 82 | 1010.0 |
| 20260506091122 | 63 | 186 | 3.0 | 3.0 | 0.00 | 0.00 | 0.00 | 82 | 1010.0 |
| 20260506091017 | 63 | 126 | 3.0 | 4.0 | 0.00 | 0.00 | 0.00 | 82 | 1010.1 |
| 20260506090929 | 63 | 232 | 1.0 | 3.0 | 0.00 | 0.00 | 0.00 | 82 | 1010.2 |
| 20260506090825 | 63 | 217 | 3.0 | 4.0 | 0.00 | 0.00 | 0.00 | 82 | 1009.9 |
| 20260506090740 | 63 | 203 | 3.0 | 4.0 | 0.00 | 0.00 | 0.00 | 81 | 1010.1 |
| 20260506090616 | 63 | 206 | 4.0 | 5.0 | 0.00 | 0.00 | 0.00 | 81 | 1010.3 |
| 20260506090527 | 63 | 200 | 4.0 | 5.0 | 0.00 | 0.00 | 0.00 | 82 | 1010.1 |
| 20260506090423 | 63 | 202 | 4.0 | 6.0 | 0.00 | 0.00 | 0.00 | 82 | 1009.9 |
| 20260506090319 | 63 | 201 | 4.0 | 5.0 | 0.00 | 0.00 | 0.00 | 82 | 1009.9 |
| 20260506090231 | 63 | 195 | 2.0 | 3.0 | 0.00 | 0.00 | 0.00 | 82 | 1010.0 |
| 20260506090126 | 63 | 211 | 1.0 | 3.0 | 0.00 | 0.00 | 0.00 | 82 | 1010.0 |
| 20260506090022 | 63 | 208 | 2.0 | 4.0 | 0.00 | 0.00 | 0.00 | 82 | 1009.9 |
| 20260506085918 | 63 | 209 | 3.0 | 4.0 | 0.00 | 0.00 | 0.00 | 82 | 1010.1 |
| 20260506085829 | 63 | 203 | 4.0 | 9.0 | 0.00 | 0.00 | 0.00 | 81 | 1010.1 |
| 20260506085725 | 63 | 200 | 5.0 | 9.0 | 0.00 | 0.00 | 0.00 | 82 | 1010.2 |
| 20260506085621 | 63 | 272 | 3.0 | 4.0 | 0.00 | 0.00 | 0.00 | 82 | 1010.1 |
| 20260506085516 | 63 | 200 | 4.0 | 8.0 | 0.00 | 0.00 | 0.00 | 82 | 1010.0 |
| 20260506085428 | 63 | 221 | 3.0 | 5.0 | 0.00 | 0.00 | 0.00 | 82 | 1010.1 |
| 20260506085324 | 63 | 202 | 3.0 | 5.0 | 0.00 | 0.00 | 0.00 | 82 | 1010.3 |
| 20260506085219 | 63 | 208 | 3.0 | 4.0 | 0.00 | 0.00 | 0.00 | 82 | 1010.0 |
| 20260506085130 | 63 | 198 | 3.0 | 4.0 | 0.00 | 0.00 | 0.00 | 82 | 1010.0 |
| 20260506085026 | 63 | 197 | 2.0 | 3.0 | 0.00 | 0.00 | 0.00 | 82 | 1010.1 |
| 20260506084922 | 63 | 188 | 3.0 | 4.0 | 0.00 | 0.00 | 0.00 | 82 | 1010.2 |
| 20260506084830 | 63 | 196 | 4.0 | 6.0 | 0.00 | 0.00 | 0.00 | 82 | 1010.2 |
| 20260506084625 | 63 | 193 | 4.0 | 5.0 | 0.00 | 0.00 | 0.00 | 82 | 1010.0 |
| 20260506084520 | 63 | 198 | 3.0 | 4.0 | 0.00 | 0.00 | 0.00 | 82 | 1010.2 |
| 20260506084416 | 63 | 210 | 4.0 | 6.0 | 0.00 | 0.00 | 0.00 | 82 | 1010.1 |
| 20260506084328 | 63 | 203 | 4.0 | 6.0 | 0.00 | 0.00 | 0.00 | 82 | 1010.4 |
| 20260506084223 | 63 | 202 | 4.0 | 6.0 | 0.00 | 0.00 | 0.00 | 82 | 1010.2 |
| 20260506084119 | 63 | 211 | 2.0 | 5.0 | 0.00 | 0.00 | 0.00 | 82 | 1010.2 |
| 20260506084031 | 63 | 205 | 3.0 | 5.0 | 0.00 | 0.00 | 0.00 | 82 | 1010.4 |
| 20260506083946 | 63 | 198 | 3.0 | 3.0 | 0.00 | 0.00 | 0.00 | 83 | 1010.4 |
| 20260506083822 | 63 | 173 | 2.0 | 4.0 | 0.00 | 0.00 | 0.00 | 82 | 1010.1 |
| 20260506083717 | 63 | 173 | 1.0 | 3.0 | 0.00 | 0.00 | 0.00 | 82 | 1010.3 |
| 20260506083629 | 63 | 188 | 3.0 | 4.0 | 0.00 | 0.00 | 0.00 | 82 | 1010.3 |
| 20260506083544 | 63 | 194 | 3.0 | 4.0 | 0.00 | 0.00 | 0.00 | 82 | 1010.3 |
| 20260506083420 | 63 | 200 | 4.0 | 4.0 | 0.00 | 0.00 | 0.00 | 82 | 1010.2 |
| 20260506083316 | 63 | 204 | 1.0 | 3.0 | 0.00 | 0.00 | 0.00 | 82 | 1010.1 |
| 20260506083227 | 63 | 207 | 3.0 | 4.0 | 0.00 | 0.00 | 0.00 | 82 | 1010.2 |
| 20260506083123 | 63 | 204 | 2.0 | 4.0 | 0.00 | 0.00 | 0.00 | 82 | 1010.4 |
| 20260506083019 | 63 | 202 | 3.0 | 4.0 | 0.00 | 0.00 | 0.00 | 82 | 1010.0 |
| 20260506082930 | 63 | 207 | 3.0 | 4.0 | 0.00 | 0.00 | 0.00 | 82 | 1010.2 |
| 20260506082826 | 63 | 195 | 3.0 | 4.0 | 0.00 | 0.00 | 0.00 | 82 | 1010.1 |
| 20260506082722 | 63 | 200 | 2.0 | 5.0 | 0.00 | 0.00 | 0.00 | 82 | 1010.1 |
| 20260506082617 | 63 | 199 | 4.0 | 5.0 | 0.00 | 0.00 | 0.00 | 82 | 1010.1 |
| 20260506082529 | 63 | 197 | 4.0 | 5.0 | 0.00 | 0.00 | 0.00 | 82 | 1010.2 |
| 20260506082425 | 63 | 198 | 3.0 | 4.0 | 0.00 | 0.00 | 0.00 | 82 | 1010.0 |
| 20260506082340 | 63 | 196 | 3.0 | 4.0 | 0.00 | 0.00 | 0.00 | 82 | 1010.3 |
| 20260506082216 | 63 | 209 | 2.0 | 4.0 | 0.00 | 0.00 | 0.00 | 82 | 1010.3 |
| 20260506082128 | 63 | 213 | 2.0 | 4.0 | 0.00 | 0.00 | 0.00 | 82 | 1010.3 |
| 20260506082023 | 63 | 221 | 2.0 | 4.0 | 0.00 | 0.00 | 0.00 | 82 | 1010.4 |
| 20260506081919 | 63 | 231 | 1.0 | 2.0 | 0.00 | 0.00 | 0.00 | 82 | 1010.2 |
| 20260506081830 | 63 | 206 | 1.0 | 3.0 | 0.00 | 0.00 | 0.00 | 81 | 1010.1 |
| 20260506081726 | 63 | 228 | 1.0 | 3.0 | 0.00 | 0.00 | 0.00 | 81 | 1010.4 |
| 20260506081622 | 63 | 232 | 2.0 | 4.0 | 0.00 | 0.00 | 0.00 | 81 | 1010.4 |
| 20260506081517 | 63 | 214 | 4.0 | 5.0 | 0.00 | 0.00 | 0.00 | 81 | 1010.3 |
| 20260506081429 | 63 | 206 | 4.0 | 5.0 | 0.00 | 0.00 | 0.00 | 81 | 1010.2 |
| 20260506081325 | 63 | 204 | 3.0 | 4.0 | 0.00 | 0.00 | 0.00 | 81 | 1010.3 |
| 20260506081220 | 63 | 183 | 3.0 | 6.0 | 0.00 | 0.00 | 0.00 | 81 | 1010.3 |
| 20260506081136 | 63 | 195 | 3.0 | 6.0 | 0.00 | 0.00 | 0.00 | 81 | 1010.2 |
| 20260506081027 | 63 | 189 | 3.0 | 4.0 | 0.00 | 0.00 | 0.00 | 82 | 1010.3 |
| 20260506080923 | 63 | 253 | 2.0 | 2.0 | 0.00 | 0.00 | 0.00 | 82 | 1010.1 |
| 20260506080819 | 63 | 208 | 3.0 | 5.0 | 0.00 | 0.00 | 0.00 | 82 | 1010.2 |
| 20260506080730 | 63 | 227 | 3.0 | 4.0 | 0.00 | 0.00 | 0.00 | 82 | 1010.4 |
| 20260506080626 | 63 | 209 | 3.0 | 4.0 | 0.00 | 0.00 | 0.00 | 82 | 1010.1 |
| 20260506080521 | 63 | 181 | 2.0 | 4.0 | 0.00 | 0.00 | 0.00 | 81 | 1010.1 |
| 20260506080437 | 63 | 193 | 3.0 | 4.0 | 0.00 | 0.00 | 0.00 | 81 | 1010.1 |
| 20260506080329 | 63 | 210 | 3.0 | 5.0 | 0.00 | 0.00 | 0.00 | 81 | 1010.2 |
| 20260506080224 | 63 | 186 | 2.0 | 4.0 | 0.00 | 0.00 | 0.00 | 81 | 1010.2 |
| 20260506080120 | 63 | 193 | 3.0 | 4.0 | 0.00 | 0.00 | 0.00 | 81 | 1010.0 |
| 20260506073518 | 64 | 189 | 2.0 | 3.0 | 0.00 | 0.00 | 0.00 | 79 | 1010.2 |
| 20260506073450 | 64 | 188 | 2.0 | 5.0 | 0.00 | 0.00 | 0.00 | 79 | 1010.4 |
| 20260506073326 | 64 | 198 | 3.0 | 4.0 | 0.00 | 0.00 | 0.00 | 79 | 1010.3 |
| 20260506073221 | 64 | 197 | 3.0 | 5.0 | 0.00 | 0.00 | 0.00 | 79 | 1010.3 |
| 20260506073117 | 64 | 222 | 1.0 | 3.0 | 0.00 | 0.00 | 0.00 | 79 | 1010.3 |
| 20260506073029 | 64 | 141 | 2.0 | 2.0 | 0.00 | 0.00 | 0.00 | 79 | 1010.2 |
| 20260506072924 | 64 | 200 | 3.0 | 5.0 | 0.00 | 0.00 | 0.00 | 79 | 1010.4 |
| 20260506072840 | 64 | 202 | 1.0 | 3.0 | 0.00 | 0.00 | 0.00 | 79 | 1010.3 |
| 20260506072716 | 64 | 193 | 2.0 | 4.0 | 0.00 | 0.00 | 0.00 | 78 | 1010.2 |
| 20260506072627 | 64 | 195 | 3.0 | 4.0 | 0.00 | 0.00 | 0.00 | 78 | 1010.2 |
| 20260506072523 | 64 | 201 | 2.0 | 4.0 | 0.00 | 0.00 | 0.00 | 79 | 1010.3 |
| 20260506072419 | 64 | 191 | 3.0 | 4.0 | 0.00 | 0.00 | 0.00 | 78 | 1010.2 |
| 20260506072330 | 64 | 203 | 2.0 | 4.0 | 0.00 | 0.00 | 0.00 | 78 | 1010.2 |
| 20260506072226 | 64 | 203 | 3.0 | 4.0 | 0.00 | 0.00 | 0.00 | 78 | 1010.3 |
| 20260506072121 | 64 | 189 | 2.0 | 4.0 | 0.00 | 0.00 | 0.00 | 78 | 1010.3 |
| 20260506072017 | 64 | 189 | 3.0 | 3.0 | 0.00 | 0.00 | 0.00 | 78 | 1010.4 |
| 20260506071929 | 64 | 180 | 2.0 | 4.0 | 0.00 | 0.00 | 0.00 | 78 | 1010.2 |
| 20260506071824 | 64 | 195 | 2.0 | 4.0 | 0.00 | 0.00 | 0.00 | 78 | 1010.3 |
| 20260506071720 | 64 | 198 | 3.0 | 4.0 | 0.00 | 0.00 | 0.00 | 78 | 1010.3 |
| 20260506071636 | 64 | 195 | 3.0 | 4.0 | 0.00 | 0.00 | 0.00 | 78 | 1010.3 |
| 20260506071527 | 64 | 207 | 2.0 | 4.0 | 0.00 | 0.00 | 0.00 | 78 | 1010.4 |
| 20260506071443 | 64 | 197 | 2.0 | 4.0 | 0.00 | 0.00 | 0.00 | 78 | 1010.3 |
| 20260506071319 | 64 | 193 | 2.0 | 3.0 | 0.00 | 0.00 | 0.00 | 78 | 1010.3 |
| 20260506071230 | 64 | 177 | 1.0 | 3.0 | 0.00 | 0.00 | 0.00 | 78 | 1010.3 |
| 20260506071146 | 64 | 200 | 1.0 | 3.0 | 0.00 | 0.00 | 0.00 | 78 | 1010.3 |
| 20260506071022 | 64 | 219 | 2.0 | 3.0 | 0.00 | 0.00 | 0.00 | 78 | 1010.3 |
| 20260506070917 | 64 | 195 | 2.0 | 4.0 | 0.00 | 0.00 | 0.00 | 78 | 1010.3 |
| 20260506070849 | 64 | 194 | 2.0 | 2.0 | 0.00 | 0.00 | 0.00 | 77 | 1010.5 |
| 20260506070725 | 65 | 192 | 2.0 | 3.0 | 0.00 | 0.00 | 0.00 | 77 | 1010.3 |
| 20260506070620 | 65 | 214 | 0.0 | 2.0 | 0.00 | 0.00 | 0.00 | 77 | 1010.3 |
| 20260506070516 | 65 | 200 | 2.0 | 4.0 | 0.00 | 0.00 | 0.00 | 76 | 1010.4 |
| 20260506070448 | 65 | 207 | 2.0 | 3.0 | 0.00 | 0.00 | 0.00 | 76 | 1010.5 |
| 20260506070323 | 65 | 199 | 2.0 | 4.0 | 0.00 | 0.00 | 0.00 | 76 | 1010.3 |
| 20260506070259 | 65 | 189 | 3.0 | 4.0 | 0.00 | 0.00 | 0.00 | 76 | 1010.4 |
| 20260506070130 | 65 | 199 | 3.0 | 4.0 | 0.00 | 0.00 | 0.00 | 76 | 1010.4 |
| 20260506062449 | 65 | 202 | 3.0 | 4.0 | 0.00 | 0.00 | 0.00 | 74 | 1010.4 |
| 20260506062325 | 65 | 207 | 3.0 | 4.0 | 0.00 | 0.00 | 0.00 | 74 | 1010.4 |
| 20260506062221 | 65 | 240 | 1.0 | 3.0 | 0.00 | 0.00 | 0.00 | 74 | 1010.6 |
| 20260506062116 | 65 | 207 | 4.0 | 6.0 | 0.00 | 0.00 | 0.00 | 74 | 1010.6 |
| 20260506062028 | 65 | 207 | 1.0 | 3.0 | 0.00 | 0.00 | 0.00 | 74 | 1010.5 |
| 20260506061924 | 65 | 201 | 2.0 | 3.0 | 0.00 | 0.00 | 0.00 | 74 | 1010.4 |
| 20260506061819 | 65 | 212 | 2.0 | 3.0 | 0.00 | 0.00 | 0.00 | 74 | 1010.6 |
| 20260506061715 | 65 | 218 | 2.0 | 4.0 | 0.00 | 0.00 | 0.00 | 74 | 1010.5 |
| 20260506061627 | 65 | 191 | 4.0 | 6.0 | 0.00 | 0.00 | 0.00 | 74 | 1010.5 |
| 20260506061522 | 65 | 213 | 3.0 | 6.0 | 0.00 | 0.00 | 0.00 | 74 | 1010.6 |
| 20260506061418 | 65 | 202 | 2.0 | 4.0 | 0.00 | 0.00 | 0.00 | 74 | 1010.4 |
| 20260506061330 | 65 | 200 | 3.0 | 5.0 | 0.00 | 0.00 | 0.00 | 74 | 1010.4 |
| 20260506061225 | 65 | 199 | 3.0 | 4.0 | 0.00 | 0.00 | 0.00 | 74 | 1010.3 |
| 20260506061121 | 65 | 205 | 2.0 | 2.0 | 0.00 | 0.00 | 0.00 | 74 | 1010.5 |
| 20260506061017 | 65 | 200 | 2.0 | 4.0 | 0.00 | 0.00 | 0.00 | 74 | 1010.5 |
| 20260506060928 | 65 | 195 | 2.0 | 3.0 | 0.00 | 0.00 | 0.00 | 73 | 1010.4 |
| 20260506060824 | 65 | 196 | 2.0 | 3.0 | 0.00 | 0.00 | 0.00 | 73 | 1010.6 |
| 20260506060720 | 65 | 197 | 2.0 | 3.0 | 0.00 | 0.00 | 0.00 | 73 | 1010.4 |
| 20260506060615 | 66 | 197 | 3.0 | 4.0 | 0.00 | 0.00 | 0.00 | 73 | 1010.4 |
| 20260506060527 | 66 | 204 | 3.0 | 4.0 | 0.00 | 0.00 | 0.00 | 73 | 1010.5 |
| 20260506060422 | 66 | 195 | 2.0 | 4.0 | 0.00 | 0.00 | 0.00 | 73 | 1010.4 |
| 20260506060318 | 66 | 206 | 4.0 | 5.0 | 0.00 | 0.00 | 0.00 | 72 | 1010.6 |
| 20260506060230 | 66 | 200 | 3.0 | 5.0 | 0.00 | 0.00 | 0.00 | 72 | 1010.4 |
| 20260506060126 | 66 | 199 | 3.0 | 4.0 | 0.00 | 0.00 | 0.00 | 72 | 1010.3 |
| 20260506051324 | 66 | 201 | 4.0 | 7.0 | 0.00 | 0.00 | 0.00 | 70 | 1010.8 |
| 20260506051240 | 66 | 215 | 2.0 | 4.0 | 0.00 | 0.00 | 0.00 | 69 | 1010.9 |
| 20260506051115 | 66 | 242 | 2.0 | 4.0 | 0.00 | 0.00 | 0.00 | 69 | 1010.9 |
| 20260506051107 | 66 | 233 | 2.0 | 4.0 | 0.00 | 0.00 | 0.00 | 69 | 1010.8 |
| 20260506050923 | 66 | 220 | 2.0 | 4.0 | 0.00 | 0.00 | 0.00 | 69 | 1011.0 |
| 20260506050818 | 66 | 214 | 3.0 | 6.0 | 0.00 | 0.00 | 0.00 | 69 | 1011.0 |
| 20260506050730 | 66 | 190 | 2.0 | 4.0 | 0.00 | 0.00 | 0.00 | 69 | 1011.1 |
| 20260506050626 | 66 | 212 | 2.0 | 6.0 | 0.00 | 0.00 | 0.00 | 69 | 1011.2 |
| 20260506050541 | 66 | 205 | 3.0 | 6.0 | 0.00 | 0.00 | 0.00 | 69 | 1011.1 |
| 20260506050417 | 66 | 200 | 3.0 | 4.0 | 0.00 | 0.00 | 0.00 | 69 | 1011.1 |
| 20260506050349 | 66 | 207 | 3.0 | 5.0 | 0.00 | 0.00 | 0.00 | 69 | 1011.0 |
| 20260506050244 | 66 | 198 | 3.0 | 5.0 | 0.00 | 0.00 | 0.00 | 69 | 1011.0 |
| 20260506050120 | 66 | 218 | 2.0 | 2.0 | 0.00 | 0.00 | 0.00 | 69 | 1011.0 |
| 20260506045124 | 67 | 181 | 3.0 | 4.0 | 0.00 | 0.00 | 0.00 | 68 | 1010.9 |
| 20260506045020 | 67 | 198 | 3.0 | 4.0 | 0.00 | 0.00 | 0.00 | 68 | 1011.2 |
| 20260506044916 | 67 | 203 | 3.0 | 5.0 | 0.00 | 0.00 | 0.00 | 68 | 1011.0 |
| 20260506044827 | 67 | 208 | 3.0 | 6.0 | 0.00 | 0.00 | 0.00 | 68 | 1010.9 |
| 20260506044723 | 67 | 202 | 4.0 | 6.0 | 0.00 | 0.00 | 0.00 | 68 | 1011.0 |
| 20260506044638 | 67 | 212 | 4.0 | 6.0 | 0.00 | 0.00 | 0.00 | 68 | 1010.8 |
| 20260506044530 | 67 | 193 | 3.0 | 4.0 | 0.00 | 0.00 | 0.00 | 68 | 1010.9 |
| 20260506044426 | 67 | 209 | 2.0 | 4.0 | 0.00 | 0.00 | 0.00 | 67 | 1011.0 |
| 20260506044341 | 67 | 209 | 2.0 | 5.0 | 0.00 | 0.00 | 0.00 | 67 | 1010.9 |
| 20260506044217 | 67 | 199 | 4.0 | 7.0 | 0.00 | 0.00 | 0.00 | 67 | 1011.1 |
| 20260506044129 | 67 | 208 | 3.0 | 6.0 | 0.00 | 0.00 | 0.00 | 67 | 1011.0 |
| 20260506044024 | 67 | 212 | 2.0 | 4.0 | 0.00 | 0.00 | 0.00 | 67 | 1011.0 |
| 20260506043920 | 67 | 201 | 2.0 | 4.0 | 0.00 | 0.00 | 0.00 | 67 | 1011.0 |
| 20260506043816 | 67 | 196 | 2.0 | 4.0 | 0.00 | 0.00 | 0.00 | 67 | 1011.1 |
| 20260506043727 | 67 | 220 | 2.0 | 4.0 | 0.00 | 0.00 | 0.00 | 67 | 1011.1 |
| 20260506043623 | 67 | 203 | 3.0 | 5.0 | 0.00 | 0.00 | 0.00 | 67 | 1011.0 |
| 20260506043518 | 67 | 188 | 4.0 | 5.0 | 0.00 | 0.00 | 0.00 | 67 | 1010.9 |
| 20260506043430 | 67 | 243 | 4.0 | 6.0 | 0.00 | 0.00 | 0.00 | 67 | 1011.0 |
| 20260506043326 | 67 | 192 | 2.0 | 3.0 | 0.00 | 0.00 | 0.00 | 67 | 1011.0 |
| 20260506043222 | 67 | 185 | 2.0 | 4.0 | 0.00 | 0.00 | 0.00 | 67 | 1011.0 |
| 20260506043137 | 67 | 192 | 5.0 | 5.0 | 0.00 | 0.00 | 0.00 | 67 | 1010.9 |
| 20260506043029 | 67 | 202 | 2.0 | 3.0 | 0.00 | 0.00 | 0.00 | 67 | 1010.9 |
| 20260506042925 | 67 | 211 | 4.0 | 6.0 | 0.00 | 0.00 | 0.00 | 67 | 1010.9 |
| 20260506042820 | 67 | 123 | 1.0 | 2.0 | 0.00 | 0.00 | 0.00 | 67 | 1011.0 |
| 20260506042736 | 67 | 204 | 1.0 | 3.0 | 0.00 | 0.00 | 0.00 | 67 | 1011.0 |
| 20260506042627 | 67 | 201 | 1.0 | 3.0 | 0.00 | 0.00 | 0.00 | 67 | 1011.0 |
| 20260506042523 | 67 | 208 | 3.0 | 4.0 | 0.00 | 0.00 | 0.00 | 67 | 1010.9 |
| 20260506042419 | 67 | 201 | 3.0 | 6.0 | 0.00 | 0.00 | 0.00 | 66 | 1010.9 |
| 20260506042330 | 67 | 203 | 4.0 | 6.0 | 0.00 | 0.00 | 0.00 | 66 | 1011.0 |
| 20260506042226 | 67 | 202 | 2.0 | 4.0 | 0.00 | 0.00 | 0.00 | 66 | 1010.8 |
| 20260506042122 | 67 | 215 | 2.0 | 6.0 | 0.00 | 0.00 | 0.00 | 66 | 1010.9 |
| 20260506042017 | 67 | 203 | 4.0 | 7.0 | 0.00 | 0.00 | 0.00 | 66 | 1011.1 |
| 20260506041929 | 67 | 215 | 3.0 | 5.0 | 0.00 | 0.00 | 0.00 | 66 | 1010.8 |
| 20260506041824 | 67 | 201 | 3.0 | 5.0 | 0.00 | 0.00 | 0.00 | 66 | 1010.9 |
| 20260506041720 | 67 | 198 | 2.0 | 4.0 | 0.00 | 0.00 | 0.00 | 66 | 1010.7 |
| 20260506041616 | 67 | 216 | 3.0 | 4.0 | 0.00 | 0.00 | 0.00 | 66 | 1010.9 |
| 20260506041527 | 67 | 227 | 4.0 | 6.0 | 0.00 | 0.00 | 0.00 | 65 | 1010.8 |
| 20260506041423 | 67 | 206 | 3.0 | 11.0 | 0.00 | 0.00 | 0.00 | 65 | 1010.9 |
| 20260506041319 | 67 | 194 | 4.0 | 10.0 | 0.00 | 0.00 | 0.00 | 66 | 1010.7 |
| 20260506041230 | 67 | 213 | 4.0 | 6.0 | 0.00 | 0.00 | 0.00 | 66 | 1010.9 |
| 20260506041126 | 67 | 208 | 2.0 | 5.0 | 0.00 | 0.00 | 0.00 | 66 | 1010.8 |
| 20260506041021 | 68 | 211 | 4.0 | 5.0 | 0.00 | 0.00 | 0.00 | 65 | 1010.9 |
| 20260506040917 | 68 | 202 | 1.0 | 3.0 | 0.00 | 0.00 | 0.00 | 65 | 1011.1 |
| 20260506040829 | 68 | 220 | 3.0 | 6.0 | 0.00 | 0.00 | 0.00 | 65 | 1010.9 |
| 20260506040724 | 68 | 202 | 4.0 | 7.0 | 0.00 | 0.00 | 0.00 | 65 | 1011.0 |
| 20260506040620 | 68 | 195 | 3.0 | 7.0 | 0.00 | 0.00 | 0.00 | 65 | 1010.9 |
| 20260506040555 | 68 | 206 | 5.0 | 7.0 | 0.00 | 0.00 | 0.00 | 65 | 1011.0 |
| 20260506040427 | 68 | 246 | 4.0 | 5.0 | 0.00 | 0.00 | 0.00 | 64 | 1010.9 |
| 20260506040322 | 68 | 211 | 4.0 | 6.0 | 0.00 | 0.00 | 0.00 | 64 | 1011.0 |
| 20260506040218 | 68 | 223 | 4.0 | 6.0 | 0.00 | 0.00 | 0.00 | 64 | 1010.9 |
| 20260506040130 | 68 | 219 | 3.0 | 5.0 | 0.00 | 0.00 | 0.00 | 64 | 1010.8 |
| 20260506040025 | 68 | 186 | 2.0 | 4.0 | 0.00 | 0.00 | 0.00 | 64 | 1010.8 |
| 20260506035941 | 68 | 209 | 3.0 | 8.0 | 0.00 | 0.00 | 0.00 | 64 | 1010.9 |
| 20260506035817 | 68 | 203 | 6.0 | 9.0 | 0.00 | 0.00 | 0.00 | 64 | 1010.9 |
| 20260506035728 | 68 | 205 | 2.0 | 4.0 | 0.00 | 0.00 | 0.00 | 64 | 1011.0 |
| 20260506035624 | 68 | 208 | 4.0 | 6.0 | 0.00 | 0.00 | 0.00 | 64 | 1010.8 |
| 20260506035520 | 68 | 201 | 8.0 | 11.0 | 0.00 | 0.00 | 0.00 | 64 | 1010.7 |
| 20260506035415 | 68 | 212 | 5.0 | 8.0 | 0.00 | 0.00 | 0.00 | 64 | 1010.8 |
| 20260506035347 | 68 | 196 | 4.0 | 7.0 | 0.00 | 0.00 | 0.00 | 64 | 1011.0 |
| 20260506035223 | 68 | 227 | 4.0 | 8.0 | 0.00 | 0.00 | 0.00 | 64 | 1010.8 |
| 20260506035138 | 68 | 238 | 2.0 | 4.0 | 0.00 | 0.00 | 0.00 | 64 | 1010.9 |
| 20260506035030 | 68 | 204 | 4.0 | 6.0 | 0.00 | 0.00 | 0.00 | 64 | 1010.8 |
| 20260506034926 | 68 | 219 | 5.0 | 6.0 | 0.00 | 0.00 | 0.00 | 64 | 1010.7 |
| 20260506034841 | 68 | 207 | 4.0 | 6.0 | 0.00 | 0.00 | 0.00 | 64 | 1010.8 |
| 20260506034716 | 68 | 217 | 3.0 | 5.0 | 0.00 | 0.00 | 0.00 | 64 | 1010.7 |
| 20260506034628 | 68 | 203 | 3.0 | 6.0 | 0.00 | 0.00 | 0.00 | 64 | 1010.8 |
| 20260506034524 | 68 | 203 | 4.0 | 5.0 | 0.00 | 0.00 | 0.00 | 64 | 1010.9 |
| 20260506034419 | 68 | 215 | 3.0 | 5.0 | 0.00 | 0.00 | 0.00 | 63 | 1011.1 |
| 20260506034331 | 68 | 217 | 2.0 | 4.0 | 0.00 | 0.00 | 0.00 | 63 | 1011.0 |
| 20260506034246 | 68 | 213 | 3.0 | 6.0 | 0.00 | 0.00 | 0.00 | 63 | 1010.9 |
| 20260506034122 | 68 | 211 | 4.0 | 4.0 | 0.00 | 0.00 | 0.00 | 63 | 1010.9 |
| 20260506034018 | 68 | 211 | 3.0 | 8.0 | 0.00 | 0.00 | 0.00 | 63 | 1010.9 |
| 20260506033929 | 68 | 213 | 6.0 | 9.0 | 0.00 | 0.00 | 0.00 | 63 | 1010.8 |
| 20260506033825 | 68 | 208 | 4.0 | 8.0 | 0.00 | 0.00 | 0.00 | 63 | 1011.1 |
| 20260506033720 | 68 | 210 | 3.0 | 5.0 | 0.00 | 0.00 | 0.00 | 63 | 1010.9 |
| 20260506033616 | 68 | 219 | 6.0 | 10.0 | 0.00 | 0.00 | 0.00 | 63 | 1010.9 |
| 20260506033608 | 68 | 208 | 3.0 | 6.0 | 0.00 | 0.00 | 0.00 | 63 | 1011.1 |
| 20260506033443 | 68 | 208 | 4.0 | 6.0 | 0.00 | 0.00 | 0.00 | 63 | 1011.0 |
| 20260506033319 | 68 | 209 | 5.0 | 6.0 | 0.00 | 0.00 | 0.00 | 62 | 1010.9 |
| 20260506033230 | 68 | 204 | 2.0 | 5.0 | 0.00 | 0.00 | 0.00 | 63 | 1010.9 |
| 20260506033126 | 68 | 231 | 3.0 | 8.0 | 0.00 | 0.00 | 0.00 | 62 | 1010.9 |
| 20260506033022 | 68 | 213 | 5.0 | 9.0 | 0.00 | 0.00 | 0.00 | 63 | 1010.9 |
| 20260506032957 | 68 | 213 | 3.0 | 5.0 | 0.00 | 0.00 | 0.00 | 63 | 1010.7 |
| 20260506032829 | 68 | 216 | 4.0 | 4.0 | 0.00 | 0.00 | 0.00 | 62 | 1010.7 |
| 20260506032724 | 68 | 216 | 3.0 | 4.0 | 0.00 | 0.00 | 0.00 | 62 | 1010.8 |
| 20260506032620 | 68 | 204 | 3.0 | 6.0 | 0.00 | 0.00 | 0.00 | 62 | 1010.9 |
| 20260506032516 | 68 | 207 | 4.0 | 6.0 | 0.00 | 0.00 | 0.00 | 62 | 1010.9 |
| 20260506032447 | 69 | 204 | 2.0 | 3.0 | 0.00 | 0.00 | 0.00 | 62 | 1010.9 |
| 20260506032343 | 69 | 195 | 2.0 | 4.0 | 0.00 | 0.00 | 0.00 | 62 | 1010.9 |
| 20260506032218 | 69 | 224 | 5.0 | 7.0 | 0.00 | 0.00 | 0.00 | 61 | 1010.9 |
| 20260506032150 | 69 | 237 | 5.0 | 8.0 | 0.00 | 0.00 | 0.00 | 62 | 1010.9 |
| 20260506032046 | 69 | 230 | 3.0 | 6.0 | 0.00 | 0.00 | 0.00 | 61 | 1010.6 |
| 20260506031921 | 69 | 206 | 4.0 | 6.0 | 0.00 | 0.00 | 0.00 | 61 | 1010.9 |
| 20260506031816 | 69 | 205 | 5.0 | 7.0 | 0.00 | 0.00 | 0.00 | 61 | 1010.8 |
| 20260506031728 | 69 | 236 | 3.0 | 6.0 | 0.00 | 0.00 | 0.00 | 61 | 1010.9 |
| 20260506031624 | 69 | 264 | 2.0 | 7.0 | 0.00 | 0.00 | 0.00 | 61 | 1010.7 |
| 20260506031540 | 69 | 209 | 4.0 | 9.0 | 0.00 | 0.00 | 0.00 | 61 | 1010.8 |
| 20260506031435 | 69 | 203 | 4.0 | 6.0 | 0.00 | 0.00 | 0.00 | 61 | 1010.8 |
| 20260506031327 | 69 | 207 | 5.0 | 9.0 | 0.00 | 0.00 | 0.00 | 61 | 1011.1 |
| 20260506031222 | 69 | 215 | 4.0 | 7.0 | 0.00 | 0.00 | 0.00 | 61 | 1010.8 |
| 20260506031118 | 69 | 204 | 3.0 | 5.0 | 0.00 | 0.00 | 0.00 | 61 | 1010.8 |
| 20260506031050 | 69 | 223 | 3.0 | 8.0 | 0.00 | 0.00 | 0.00 | 61 | 1011.0 |
| 20260506030925 | 69 | 200 | 5.0 | 9.0 | 0.00 | 0.00 | 0.00 | 61 | 1010.8 |
| 20260506030821 | 69 | 215 | 6.0 | 9.0 | 0.00 | 0.00 | 0.00 | 60 | 1010.9 |
| 20260506030717 | 69 | 205 | 4.0 | 7.0 | 0.00 | 0.00 | 0.00 | 61 | 1010.8 |
| 20260506030628 | 69 | 214 | 4.0 | 6.0 | 0.00 | 0.00 | 0.00 | 60 | 1010.8 |
| 20260506030524 | 69 | 211 | 4.0 | 8.0 | 0.00 | 0.00 | 0.00 | 60 | 1010.7 |
| 20260506030420 | 69 | 196 | 5.0 | 6.0 | 0.00 | 0.00 | 0.00 | 60 | 1010.8 |
| 20260506030315 | 69 | 228 | 4.0 | 5.0 | 0.00 | 0.00 | 0.00 | 60 | 1010.7 |
| 20260506030227 | 69 | 216 | 7.0 | 12.0 | 0.00 | 0.00 | 0.00 | 60 | 1010.9 |
| 20260506030123 | 69 | 200 | 5.0 | 9.0 | 0.00 | 0.00 | 0.00 | 60 | 1010.8 |
| 20260506030018 | 69 | 213 | 4.0 | 12.0 | 0.00 | 0.00 | 0.00 | 59 | 1010.9 |
| 20260506025930 | 69 | 201 | 4.0 | 13.0 | 0.00 | 0.00 | 0.00 | 60 | 1010.7 |
| 20260506025825 | 69 | 230 | 4.0 | 8.0 | 0.00 | 0.00 | 0.00 | 60 | 1010.6 |
| 20260506025721 | 69 | 213 | 5.0 | 7.0 | 0.00 | 0.00 | 0.00 | 60 | 1010.8 |
| 20260506025637 | 69 | 210 | 5.0 | 7.0 | 0.00 | 0.00 | 0.00 | 60 | 1010.8 |
| 20260506025549 | 69 | 200 | 3.0 | 5.0 | 0.00 | 0.00 | 0.00 | 59 | 1010.7 |
| 20260506025424 | 69 | 204 | 4.0 | 9.0 | 0.00 | 0.00 | 0.00 | 59 | 1010.7 |
| 20260506025320 | 69 | 197 | 4.0 | 7.0 | 0.00 | 0.00 | 0.00 | 59 | 1010.8 |
| 20260506025215 | 69 | 206 | 3.0 | 5.0 | 0.00 | 0.00 | 0.00 | 59 | 1010.7 |
| 20260506025127 | 69 | 201 | 3.0 | 4.0 | 0.00 | 0.00 | 0.00 | 59 | 1010.6 |
| 20260506025023 | 69 | 208 | 4.0 | 7.0 | 0.00 | 0.00 | 0.00 | 59 | 1010.8 |
| 20260506024918 | 70 | 218 | 4.0 | 9.0 | 0.00 | 0.00 | 0.00 | 59 | 1010.7 |
| 20260506024830 | 70 | 220 | 5.0 | 6.0 | 0.00 | 0.00 | 0.00 | 59 | 1010.8 |
| 20260506024726 | 70 | 199 | 3.0 | 7.0 | 0.00 | 0.00 | 0.00 | 59 | 1010.8 |
| 20260506024641 | 70 | 207 | 3.0 | 7.0 | 0.00 | 0.00 | 0.00 | 59 | 1010.8 |
| 20260506024537 | 69 | 216 | 5.0 | 9.0 | 0.00 | 0.00 | 0.00 | 59 | 1010.8 |
| 20260506024428 | 69 | 208 | 6.0 | 12.0 | 0.00 | 0.00 | 0.00 | 59 | 1010.7 |
| 20260506024324 | 70 | 222 | 4.0 | 6.0 | 0.00 | 0.00 | 0.00 | 59 | 1010.6 |
| 20260506024219 | 70 | 200 | 6.0 | 7.0 | 0.00 | 0.00 | 0.00 | 59 | 1010.7 |
| 20260506024115 | 70 | 208 | 4.0 | 8.0 | 0.00 | 0.00 | 0.00 | 59 | 1010.9 |
| 20260506024027 | 70 | 218 | 3.0 | 6.0 | 0.00 | 0.00 | 0.00 | 59 | 1010.7 |
| 20260506023923 | 70 | 223 | 2.0 | 5.0 | 0.00 | 0.00 | 0.00 | 59 | 1010.8 |
| 20260506023838 | 70 | 208 | 4.0 | 6.0 | 0.00 | 0.00 | 0.00 | 59 | 1010.8 |
| 20260506023730 | 70 | 206 | 3.0 | 6.0 | 0.00 | 0.00 | 0.00 | 59 | 1010.7 |
| 20260506023625 | 70 | 225 | 5.0 | 10.0 | 0.00 | 0.00 | 0.00 | 58 | 1010.6 |
| 20260506023521 | 70 | 202 | 10.0 | 11.0 | 0.00 | 0.00 | 0.00 | 58 | 1010.8 |
| 20260506023417 | 70 | 205 | 4.0 | 9.0 | 0.00 | 0.00 | 0.00 | 58 | 1011.0 |
| 20260506023329 | 70 | 194 | 4.0 | 9.0 | 0.00 | 0.00 | 0.00 | 58 | 1010.7 |
| 20260506023224 | 70 | 213 | 5.0 | 6.0 | 0.00 | 0.00 | 0.00 | 58 | 1010.8 |
| 20260506023120 | 70 | 203 | 6.0 | 14.0 | 0.00 | 0.00 | 0.00 | 58 | 1011.0 |
| 20260506023015 | 70 | 204 | 5.0 | 14.0 | 0.00 | 0.00 | 0.00 | 58 | 1010.8 |
| 20260506022927 | 70 | 201 | 6.0 | 10.0 | 0.00 | 0.00 | 0.00 | 58 | 1010.8 |
| 20260506022823 | 70 | 246 | 5.0 | 10.0 | 0.00 | 0.00 | 0.00 | 58 | 1010.9 |
| 20260506022738 | 70 | 227 | 5.0 | 7.0 | 0.00 | 0.00 | 0.00 | 58 | 1010.6 |
| 20260506022630 | 70 | 215 | 4.0 | 6.0 | 0.00 | 0.00 | 0.00 | 58 | 1010.7 |
| 20260506022546 | 70 | 236 | 4.0 | 7.0 | 0.00 | 0.00 | 0.00 | 58 | 1010.9 |
| 20260506022420 | 70 | 191 | 6.0 | 9.0 | 0.00 | 0.00 | 0.00 | 58 | 1010.7 |
| 20260506022316 | 70 | 206 | 3.0 | 6.0 | 0.00 | 0.00 | 0.00 | 59 | 1010.7 |
| 20260506022248 | 70 | 216 | 3.0 | 6.0 | 0.00 | 0.00 | 0.00 | 58 | 1010.9 |
| 20260506022123 | 70 | 227 | 4.0 | 6.0 | 0.00 | 0.00 | 0.00 | 58 | 1010.7 |
| 20260506022019 | 70 | 207 | 5.0 | 7.0 | 0.00 | 0.00 | 0.00 | 58 | 1010.7 |
| 20260506021931 | 70 | 203 | 5.0 | 7.0 | 0.00 | 0.00 | 0.00 | 58 | 1010.8 |
| 20260506021846 | 70 | 229 | 3.0 | 5.0 | 0.00 | 0.00 | 0.00 | 58 | 1010.6 |
| 20260506021722 | 70 | 202 | 3.0 | 6.0 | 0.00 | 0.00 | 0.00 | 58 | 1010.8 |
| 20260506021617 | 70 | 195 | 2.0 | 8.0 | 0.00 | 0.00 | 0.00 | 58 | 1010.8 |
| 20260506021529 | 70 | 201 | 4.0 | 8.0 | 0.00 | 0.00 | 0.00 | 58 | 1010.7 |
| 20260506021425 | 70 | 218 | 4.0 | 8.0 | 0.00 | 0.00 | 0.00 | 58 | 1010.7 |
| 20260506021320 | 70 | 210 | 3.0 | 6.0 | 0.00 | 0.00 | 0.00 | 58 | 1010.8 |
| 20260506021216 | 70 | 212 | 6.0 | 9.0 | 0.00 | 0.00 | 0.00 | 57 | 1010.9 |
| 20260506021128 | 70 | 219 | 6.0 | 10.0 | 0.00 | 0.00 | 0.00 | 57 | 1010.8 |
| 20260506021023 | 70 | 205 | 6.0 | 8.0 | 0.00 | 0.00 | 0.00 | 58 | 1010.5 |
| 20260506020919 | 70 | 214 | 6.0 | 10.0 | 0.00 | 0.00 | 0.00 | 57 | 1010.6 |
| 20260506020830 | 70 | 214 | 5.0 | 7.0 | 0.00 | 0.00 | 0.00 | 58 | 1010.8 |
| 20260506020726 | 71 | 223 | 3.0 | 6.0 | 0.00 | 0.00 | 0.00 | 58 | 1010.7 |
| 20260506020622 | 71 | 204 | 5.0 | 11.0 | 0.00 | 0.00 | 0.00 | 57 | 1010.7 |
| 20260506020517 | 71 | 240 | 3.0 | 4.0 | 0.00 | 0.00 | 0.00 | 57 | 1010.6 |
| 20260506020429 | 71 | 219 | 4.0 | 7.0 | 0.00 | 0.00 | 0.00 | 57 | 1011.0 |
| 20260506020325 | 71 | 213 | 4.0 | 6.0 | 0.00 | 0.00 | 0.00 | 57 | 1010.7 |
| 20260506020220 | 71 | 252 | 4.0 | 6.0 | 0.00 | 0.00 | 0.00 | 57 | 1010.5 |
| 20260506020116 | 71 | 200 | 5.0 | 10.0 | 0.00 | 0.00 | 0.00 | 57 | 1010.6 |
| 20260506020028 | 71 | 200 | 6.0 | 12.0 | 0.00 | 0.00 | 0.00 | 57 | 1010.8 |
| 20260506015923 | 71 | 201 | 6.0 | 13.0 | 0.00 | 0.00 | 0.00 | 57 | 1010.8 |
| 20260506015819 | 71 | 207 | 4.0 | 6.0 | 0.00 | 0.00 | 0.00 | 57 | 1010.5 |
| 20260506015731 | 71 | 210 | 3.0 | 6.0 | 0.00 | 0.00 | 0.00 | 57 | 1010.7 |
| 20260506015626 | 71 | 218 | 2.0 | 7.0 | 0.00 | 0.00 | 0.00 | 57 | 1010.7 |
| 20260506015542 | 71 | 203 | 7.0 | 9.0 | 0.00 | 0.00 | 0.00 | 57 | 1010.9 |
| 20260506015437 | 71 | 200 | 2.0 | 4.0 | 0.00 | 0.00 | 0.00 | 57 | 1010.8 |
| 20260506015329 | 71 | 196 | 3.0 | 6.0 | 0.00 | 0.00 | 0.00 | 56 | 1010.8 |
| 20260506015225 | 71 | 201 | 5.0 | 6.0 | 0.00 | 0.00 | 0.00 | 56 | 1010.8 |
| 20260506015120 | 71 | 218 | 3.0 | 5.0 | 0.00 | 0.00 | 0.00 | 56 | 1010.7 |
| 20260506015016 | 71 | 200 | 4.0 | 6.0 | 0.00 | 0.00 | 0.00 | 56 | 1010.9 |
| 20260506014927 | 71 | 211 | 2.0 | 4.0 | 0.00 | 0.00 | 0.00 | 56 | 1010.9 |
| 20260506014823 | 71 | 214 | 5.0 | 9.0 | 0.00 | 0.00 | 0.00 | 56 | 1010.6 |
| 20260506014719 | 71 | 223 | 8.0 | 11.0 | 0.00 | 0.00 | 0.00 | 56 | 1010.5 |
| 20260506014631 | 71 | 209 | 4.0 | 6.0 | 0.00 | 0.00 | 0.00 | 56 | 1010.5 |
| 20260506014526 | 71 | 200 | 3.0 | 6.0 | 0.00 | 0.00 | 0.00 | 56 | 1010.5 |
| 20260506014442 | 71 | 209 | 4.0 | 7.0 | 0.00 | 0.00 | 0.00 | 55 | 1010.5 |
| 20260506014317 | 72 | 233 | 3.0 | 6.0 | 0.00 | 0.00 | 0.00 | 55 | 1010.6 |
| 20260506014229 | 72 | 223 | 4.0 | 7.0 | 0.00 | 0.00 | 0.00 | 55 | 1010.6 |
| 20260506014124 | 72 | 222 | 3.0 | 5.0 | 0.00 | 0.00 | 0.00 | 55 | 1010.7 |
| 20260506014020 | 72 | 223 | 3.0 | 7.0 | 0.00 | 0.00 | 0.00 | 55 | 1010.6 |
| 20260506013936 | 72 | 188 | 5.0 | 10.0 | 0.00 | 0.00 | 0.00 | 54 | 1010.6 |
| 20260506013908 | 72 | 210 | 4.0 | 6.0 | 0.00 | 0.00 | 0.00 | 54 | 1010.7 |
| 20260506013723 | 72 | 205 | 3.0 | 5.0 | 0.00 | 0.00 | 0.00 | 54 | 1010.5 |
| 20260506013619 | 72 | 191 | 2.0 | 4.0 | 0.00 | 0.00 | 0.00 | 54 | 1010.7 |
| 20260506013531 | 72 | 212 | 2.0 | 4.0 | 0.00 | 0.00 | 0.00 | 54 | 1010.6 |
| 20260506013426 | 72 | 209 | 5.0 | 8.0 | 0.00 | 0.00 | 0.00 | 53 | 1010.6 |
| 20260506013322 | 72 | 217 | 3.0 | 5.0 | 0.00 | 0.00 | 0.00 | 53 | 1010.5 |
| 20260506013217 | 73 | 198 | 4.0 | 6.0 | 0.00 | 0.00 | 0.00 | 53 | 1010.5 |
| 20260506013129 | 73 | 209 | 5.0 | 7.0 | 0.00 | 0.00 | 0.00 | 52 | 1010.5 |
| 20260506013025 | 73 | 187 | 2.0 | 7.0 | 0.00 | 0.00 | 0.00 | 52 | 1010.5 |
| 20260506012920 | 73 | 211 | 6.0 | 7.0 | 0.00 | 0.00 | 0.00 | 51 | 1010.5 |
| 20260506012836 | 73 | 216 | 8.0 | 16.0 | 0.00 | 0.00 | 0.00 | 51 | 1010.5 |
| 20260506012728 | 73 | 201 | 3.0 | 6.0 | 0.00 | 0.00 | 0.00 | 50 | 1010.4 |
| 20260506012623 | 73 | 207 | 5.0 | 8.0 | 0.00 | 0.00 | 0.00 | 50 | 1010.5 |
| 20260506012539 | 73 | 223 | 4.0 | 6.0 | 0.00 | 0.00 | 0.00 | 49 | 1010.5 |
| 20260506012430 | 74 | 210 | 5.0 | 7.0 | 0.00 | 0.00 | 0.00 | 50 | 1010.4 |
| 20260506012326 | 74 | 239 | 4.0 | 7.0 | 0.00 | 0.00 | 0.00 | 49 | 1010.4 |
| 20260506012222 | 74 | 211 | 8.0 | 11.0 | 0.00 | 0.00 | 0.00 | 49 | 1010.3 |
| 20260506012117 | 74 | 202 | 4.0 | 6.0 | 0.00 | 0.00 | 0.00 | 48 | 1010.3 |
| 20260506012029 | 74 | 209 | 5.0 | 9.0 | 0.00 | 0.00 | 0.00 | 48 | 1010.4 |
| 20260506011945 | 74 | 205 | 4.0 | 6.0 | 0.00 | 0.00 | 0.00 | 48 | 1010.4 |
| 20260506011820 | 74 | 200 | 3.0 | 4.0 | 0.00 | 0.00 | 0.00 | 48 | 1010.4 |
| 20260506011716 | 74 | 204 | 4.0 | 4.0 | 0.00 | 0.00 | 0.00 | 47 | 1010.2 |
| 20260506011627 | 74 | 211 | 7.0 | 11.0 | 0.00 | 0.00 | 0.00 | 47 | 1010.2 |
| 20260506011523 | 74 | 227 | 4.0 | 7.0 | 0.00 | 0.00 | 0.00 | 47 | 1010.2 |
| 20260506011419 | 74 | 221 | 2.0 | 3.0 | 0.00 | 0.00 | 0.00 | 47 | 1010.0 |
| 20260506011331 | 74 | 201 | 3.0 | 6.0 | 0.00 | 0.00 | 0.00 | 47 | 1010.1 |
| 20260506011226 | 74 | 207 | 3.0 | 5.0 | 0.00 | 0.00 | 0.00 | 46 | 1010.1 |
| 20260506011122 | 74 | 194 | 3.0 | 5.0 | 0.00 | 0.00 | 0.00 | 46 | 1010.3 |
| 20260506011017 | 75 | 223 | 3.0 | 5.0 | 0.00 | 0.00 | 0.00 | 46 | 1010.1 |
| 20260506010929 | 75 | 220 | 4.0 | 6.0 | 0.00 | 0.00 | 0.00 | 46 | 1010.0 |
| 20260506010825 | 75 | 226 | 5.0 | 9.0 | 0.00 | 0.00 | 0.00 | 46 | 1010.1 |
| 20260506010720 | 75 | 197 | 5.0 | 8.0 | 0.00 | 0.00 | 0.00 | 45 | 1010.0 |
| 20260506010616 | 75 | 214 | 5.0 | 9.0 | 0.00 | 0.00 | 0.00 | 46 | 1010.1 |
| 20260506010528 | 75 | 217 | 5.0 | 8.0 | 0.00 | 0.00 | 0.00 | 45 | 1009.9 |
| 20260506010423 | 75 | 212 | 3.0 | 6.0 | 0.00 | 0.00 | 0.00 | 46 | 1010.0 |
| 20260506010319 | 75 | 201 | 5.0 | 9.0 | 0.00 | 0.00 | 0.00 | 45 | 1010.0 |
| 20260506010230 | 75 | 212 | 4.0 | 6.0 | 0.00 | 0.00 | 0.00 | 45 | 1010.0 |
| 20260506010126 | 75 | 194 | 3.0 | 9.0 | 0.00 | 0.00 | 0.00 | 45 | 1010.0 |
| 20260506010022 | 75 | 211 | 6.0 | 10.0 | 0.00 | 0.00 | 0.00 | 44 | 1010.0 |
| 20260506005918 | 75 | 248 | 4.0 | 5.0 | 0.00 | 0.00 | 0.00 | 44 | 1009.7 |
| 20260506005849 | 75 | 220 | 2.0 | 7.0 | 0.00 | 0.00 | 0.00 | 44 | 1009.9 |
| 20260506005725 | 75 | 214 | 5.0 | 8.0 | 0.00 | 0.00 | 0.00 | 44 | 1009.9 |
| 20260506005700 | 75 | 220 | 4.0 | 6.0 | 0.00 | 0.00 | 0.00 | 44 | 1009.9 |
| 20260506005516 | 75 | 236 | 3.0 | 6.0 | 0.00 | 0.00 | 0.00 | 44 | 1009.6 |
| 20260506005427 | 75 | 216 | 5.0 | 12.0 | 0.00 | 0.00 | 0.00 | 43 | 1009.9 |
| 20260506005323 | 75 | 233 | 3.0 | 5.0 | 0.00 | 0.00 | 0.00 | 44 | 1009.9 |
| 20260506005219 | 75 | 229 | 3.0 | 5.0 | 0.00 | 0.00 | 0.00 | 43 | 1009.9 |
| 20260506005130 | 75 | 225 | 6.0 | 10.0 | 0.00 | 0.00 | 0.00 | 43 | 1009.8 |
| 20260506005026 | 75 | 207 | 5.0 | 7.0 | 0.00 | 0.00 | 0.00 | 43 | 1009.9 |
| 20260506004921 | 76 | 217 | 3.0 | 5.0 | 0.00 | 0.00 | 0.00 | 43 | 1009.7 |
| 20260506004837 | 76 | 210 | 4.0 | 9.0 | 0.00 | 0.00 | 0.00 | 43 | 1009.7 |
| 20260506004729 | 76 | 213 | 5.0 | 7.0 | 0.00 | 0.00 | 0.00 | 43 | 1009.9 |
| 20260506004645 | 75 | 202 | 5.0 | 7.0 | 0.00 | 0.00 | 0.00 | 43 | 1009.8 |
| 20260506004540 | 75 | 215 | 5.0 | 8.0 | 0.00 | 0.00 | 0.00 | 43 | 1009.9 |
| 20260506004416 | 76 | 223 | 2.0 | 4.0 | 0.00 | 0.00 | 0.00 | 43 | 1009.8 |
| 20260506004327 | 76 | 202 | 3.0 | 5.0 | 0.00 | 0.00 | 0.00 | 43 | 1009.7 |
| 20260506004223 | 76 | 217 | 3.0 | 3.0 | 0.00 | 0.00 | 0.00 | 43 | 1009.8 |
| 20260506004119 | 76 | 210 | 3.0 | 4.0 | 0.00 | 0.00 | 0.00 | 42 | 1009.6 |